M I D A S
Marine Information and Data Acquisition System
Tripno 955 of the Zeeleeuw from 2005-08-30 05:10:28 to 2005-08-30 14:19:17
Back to CruiseResearch ActivitiesStationsMapUnderway DataData graphs

EquipmentUnitsComment
TimeDGPSUTC
LatitudeDGPSDM.mWGS84
LongitudeDGPSDM.mWGS84
TemperatureSBE03/SBE38deg celciusITS90
ConductivitySBE21S/mITS90
SalinitySBE21 Practical Salinity Units
ChlorophylAChelsea fluorimeterg/lCalibrated in Aceton
Missing or incorrect values are displayed as -999
Sea surface data collected by the RV Zeeleeuw from 2005-08-30 04:52:01 to 2005-08-30 14:26:24
                                                                                    Next 1000 lines
Time Latitude Longitude Temperature Conductivity Salinity ChlorophylA
2005-08-30 04:52:10 51°13.598 2°56.09 -999 0.068065 0.338267 0.465999
2005-08-30 04:52:14 51°13.599 2°56.087 -999 0.068065 0.338262 0.499708
2005-08-30 04:52:21 51°13.6 2°56.081 -999 0.068065 0.338257 0.499708
2005-08-30 04:52:26 51°13.601 2°56.076 -999 0.068065 0.338257 0.499708
2005-08-30 04:52:31 51°13.602 2°56.071 -999 0.068065 0.338257 0.499708
2005-08-30 04:52:37 51°13.604 2°56.064 -999 0.068065 0.338257 0.499708
2005-08-30 04:52:42 51°13.606 2°56.058 -999 0.068065 0.338262 0.499708
2005-08-30 04:52:46 51°13.607 2°56.052 -999 0.068065 0.338267 0.499708
2005-08-30 04:52:51 51°13.609 2°56.046 -999 0.068065 0.338277 0.499708
2005-08-30 04:52:57 51°13.611 2°56.037 -999 0.068065 0.338293 0.499708
2005-08-30 04:53:02 51°13.613 2°56.03 -999 0.068168 0.338835 0.499708
2005-08-30 04:53:07 51°13.615 2°56.023 -999 0.068168 0.338835 0.499708
2005-08-30 04:53:11 51°13.617 2°56.016 -999 0.068168 0.338845 0.499708
2005-08-30 04:53:17 51°13.619 2°56.007 -999 0.068065 0.338319 0.499708
2005-08-30 04:53:22 51°13.622 2°56 -999 0.068065 0.338325 0.499708
2005-08-30 04:53:26 51°13.624 2°55.992 -999 0.068065 0.338319 0.465999
2005-08-30 04:53:31 51°13.627 2°55.985 -999 0.068065 0.338319 0.465999
2005-08-30 04:53:36 51°13.629 2°55.977 -999 0.068065 0.338319 0.499708
2005-08-30 04:53:41 51°13.632 2°55.969 -999 0.068065 0.338314 0.499708
2005-08-30 04:53:46 51°13.635 2°55.96 -999 0.068065 0.338314 0.499708
2005-08-30 04:53:51 51°13.638 2°55.952 -999 0.068065 0.338309 0.499708
2005-08-30 04:53:56 51°13.642 2°55.944 -999 0.068065 0.338314 0.499708
2005-08-30 04:54:01 51°13.645 2°55.936 -999 0.068065 0.338314 0.499708
2005-08-30 04:54:06 51°13.648 2°55.929 -999 0.068065 0.338319 0.465999
2005-08-30 04:54:11 51°13.652 2°55.921 -999 0.068065 0.338319 0.465999
2005-08-30 04:54:17 51°13.656 2°55.912 -999 0.068065 0.338325 0.465999
2005-08-30 04:54:22 51°13.66 2°55.904 -999 0.068065 0.33833 0.499708
2005-08-30 04:54:26 51°13.664 2°55.897 -999 0.068065 0.338335 0.499708
2005-08-30 04:54:31 51°13.668 2°55.889 -999 0.068065 0.338335 0.499708
2005-08-30 04:54:37 51°13.672 2°55.881 -999 0.068065 0.338335 0.499708
2005-08-30 04:54:41 51°13.675 2°55.874 -999 0.068065 0.33834 0.499708
2005-08-30 04:54:46 51°13.679 2°55.866 -999 0.068065 0.33834 0.499708
2005-08-30 04:54:51 51°13.683 2°55.858 -999 0.068065 0.33834 0.499708
2005-08-30 04:54:57 51°13.688 2°55.849 -999 0.068065 0.338346 0.499708
2005-08-30 04:55:02 51°13.692 2°55.841 -999 0.068065 0.338346 0.499708
2005-08-30 04:55:06 51°13.695 2°55.834 -999 0.068065 0.338346 0.499708
2005-08-30 04:55:11 51°13.7 2°55.825 -999 0.068065 0.338351 0.499708
2005-08-30 04:55:17 51°13.706 2°55.815 -999 0.068065 0.338351 0.499708
2005-08-30 04:55:22 51°13.71 2°55.808 -999 0.068065 0.338351 0.465999
2005-08-30 04:55:26 51°13.713 2°55.8 -999 0.068065 0.338356 0.499708
2005-08-30 04:55:31 51°13.718 2°55.792 -999 0.068065 0.338356 0.499708
2005-08-30 04:55:36 51°13.723 2°55.784 -999 0.068065 0.338356 0.499708
2005-08-30 04:55:41 51°13.728 2°55.775 -999 0.068065 0.338361 0.499708
2005-08-30 04:55:47 51°13.734 2°55.766 -999 0.068065 0.338361 0.499708
2005-08-30 04:55:52 51°13.739 2°55.757 -999 0.068065 0.338367 0.465999
2005-08-30 04:55:57 51°13.744 2°55.749 -999 0.068065 0.338372 0.499708
2005-08-30 04:56:02 51°13.75 2°55.741 -999 0.068065 0.338372 0.499708
2005-08-30 04:56:06 51°13.755 2°55.734 -999 0.068065 0.338372 0.499708
2005-08-30 04:56:11 51°13.76 2°55.725 -999 0.068065 0.338377 0.499708
2005-08-30 04:56:17 51°13.767 2°55.716 -999 0.068065 0.338382 0.465999
2005-08-30 04:56:22 51°13.772 2°55.708 -999 0.068065 0.338388 0.499708
2005-08-30 04:56:26 51°13.778 2°55.701 -999 0.068065 0.338388 0.499708
2005-08-30 04:56:31 51°13.784 2°55.693 -999 0.068065 0.338388 0.499708
2005-08-30 04:56:37 51°13.791 2°55.685 -999 0.068065 0.338388 0.499708
2005-08-30 04:56:42 51°13.797 2°55.679 -999 0.068065 0.338393 0.465999
2005-08-30 04:56:46 51°13.803 2°55.673 -999 0.068065 0.338393 0.465999
2005-08-30 04:56:51 51°13.809 2°55.667 -999 0.068065 0.338393 0.465999
2005-08-30 04:56:56 51°13.815 2°55.662 -999 0.068065 0.338398 0.499708
2005-08-30 04:57:02 51°13.823 2°55.656 -999 0.068065 0.338398 0.499708
2005-08-30 04:57:07 51°13.83 2°55.652 -999 0.068065 0.338398 0.499708
2005-08-30 04:57:11 51°13.836 2°55.649 -999 0.068065 0.338403 0.465999
2005-08-30 04:57:16 51°13.842 2°55.645 -999 0.068065 0.338403 0.499708
2005-08-30 04:57:22 51°13.85 2°55.642 -999 0.068065 0.338414 0.499708
2005-08-30 04:57:26 51°13.856 2°55.64 -999 0.068065 0.338414 0.499708
2005-08-30 04:57:31 51°13.863 2°55.638 -999 0.068065 0.338414 0.499708
2005-08-30 04:57:36 51°13.87 2°55.636 -999 0.068065 0.338419 0.499708
2005-08-30 04:57:42 51°13.878 2°55.636 -999 0.068065 0.338419 0.465999
2005-08-30 04:57:47 51°13.885 2°55.636 -999 0.068065 0.338424 0.465999
2005-08-30 04:57:51 51°13.89 2°55.636 -999 0.068065 0.33843 0.465999
2005-08-30 04:57:56 51°13.896 2°55.636 -999 0.068065 0.33843 0.499708
2005-08-30 04:58:02 51°13.902 2°55.637 -999 0.068065 0.338435 0.499708
2005-08-30 04:58:06 51°13.907 2°55.638 -999 0.068065 0.338435 0.499708
2005-08-30 04:58:11 51°13.912 2°55.639 -999 0.068065 0.33844 0.499708
2005-08-30 04:58:16 51°13.916 2°55.64 -999 0.068065 0.33844 0.465999
2005-08-30 04:58:21 51°13.921 2°55.642 -999 0.068065 0.338445 0.499708
2005-08-30 04:58:26 51°13.926 2°55.643 -999 0.068065 0.338451 0.499708
2005-08-30 04:58:30 51°13.929 2°55.645 -999 0.068065 0.338451 0.499708
2005-08-30 04:58:36 51°13.932 2°55.646 -999 0.068065 0.338445 0.499708
2005-08-30 04:58:41 51°13.934 2°55.647 -999 0.068065 0.33844 0.465999
2005-08-30 04:58:46 51°13.936 2°55.647 -999 0.068065 0.33843 0.465999
2005-08-30 04:58:50 51°13.936 2°55.646 -999 0.068065 0.33843 0.499708
2005-08-30 04:58:56 51°13.936 2°55.645 -999 0.068065 0.33843 0.499708
2005-08-30 04:59:01 51°13.936 2°55.643 -999 0.068065 0.33843 0.499708
2005-08-30 04:59:06 51°13.935 2°55.64 -999 0.068065 0.338435 0.499708
2005-08-30 04:59:10 51°13.935 2°55.636 -999 0.068065 0.338445 0.465999
2005-08-30 04:59:16 51°13.933 2°55.628 -999 0.068065 0.338461 0.499708
2005-08-30 04:59:20 51°13.933 2°55.623 -999 0.068065 0.338477 0.499708
2005-08-30 04:59:26 51°13.934 2°55.612 -999 0.068065 0.338493 0.499708
2005-08-30 04:59:30 51°13.935 2°55.605 -999 0.068065 0.338493 0.499708
2005-08-30 04:59:36 51°13.937 2°55.593 -999 0.068065 0.338508 0.499708
2005-08-30 04:59:41 51°13.94 2°55.585 -999 0.068065 0.338514 0.499708
2005-08-30 04:59:46 51°13.945 2°55.576 -999 0.068065 0.338524 0.499708
2005-08-30 04:59:50 51°13.95 2°55.569 -999 0.068065 0.338529 0.499708
2005-08-30 04:59:56 51°13.956 2°55.56 -999 0.068065 0.338529 0.499708
2005-08-30 05:00:01 51°13.963 2°55.551 -999 0.068065 0.338519 0.499708
2005-08-30 05:00:06 51°13.971 2°55.542 -999 0.068065 0.338519 0.499708
2005-08-30 05:00:10 51°13.978 2°55.534 -999 0.068065 0.338503 0.499708
2005-08-30 05:00:16 51°13.989 2°55.524 -999 0.068065 0.338493 0.499708
2005-08-30 05:00:20 51°13.996 2°55.516 -999 0.068065 0.338482 0.499708
2005-08-30 05:00:26 51°14.008 2°55.505 -999 0.068065 0.338482 0.499708
2005-08-30 05:00:30 51°14.016 2°55.498 -999 0.068065 0.338482 0.499708
2005-08-30 05:00:36 51°14.03 2°55.488 -999 0.068065 0.338482 0.499708
2005-08-30 05:00:41 51°14.04 2°55.481 -999 0.068065 0.338493 0.499708
2005-08-30 05:00:46 51°14.052 2°55.472 -999 0.068065 0.338503 0.499708
2005-08-30 05:00:50 51°14.062 2°55.464 -999 0.068065 0.338514 0.465999
2005-08-30 05:00:56 51°14.076 2°55.454 -999 0.068168 0.33905 0.499708
2005-08-30 05:01:00 51°14.086 2°55.447 -999 0.068168 0.33905 0.499708
2005-08-30 05:01:06 51°14.101 2°55.437 -999 0.068065 0.338529 0.499708
2005-08-30 05:01:11 51°14.114 2°55.429 -999 0.068065 0.338535 0.499708
2005-08-30 05:01:16 51°14.127 2°55.419 -999 0.068065 0.338545 0.499708
2005-08-30 05:01:20 51°14.137 2°55.411 -999 0.068065 0.338545 0.465999
2005-08-30 05:01:26 51°14.152 2°55.399 -999 0.068065 0.338545 0.499708
2005-08-30 05:01:31 51°14.166 2°55.386 -999 0.068065 0.338545 0.465999
2005-08-30 05:01:36 51°14.179 2°55.372 -999 0.068065 0.338545 0.465999
2005-08-30 05:01:41 51°14.19 2°55.36 -999 0.068065 0.33854 0.499708
2005-08-30 05:01:46 51°14.203 2°55.343 -999 0.068065 0.338545 0.465999
2005-08-30 05:01:51 51°14.214 2°55.328 -999 0.068065 0.338556 0.465999
2005-08-30 05:01:56 51°14.226 2°55.309 -999 0.068065 0.338566 0.499708
2005-08-30 05:02:00 51°14.234 2°55.294 -999 0.068065 0.338556 0.499708
2005-08-30 05:02:06 51°14.247 2°55.272 -999 0.068065 0.338556 0.499708
2005-08-30 05:02:11 51°14.256 2°55.255 -999 0.068065 0.338561 0.465999
2005-08-30 05:02:16 51°14.268 2°55.235 -999 0.068065 0.338556 0.499708
2005-08-30 05:02:21 51°14.279 2°55.217 -999 0.068065 0.338561 0.499708
2005-08-30 05:02:26 51°14.29 2°55.198 -999 0.068065 0.338571 0.499708
2005-08-30 05:02:31 51°14.3 2°55.181 -999 0.068065 0.338571 0.499708
2005-08-30 05:02:36 51°14.311 2°55.163 -999 0.068065 0.338577 0.499708
2005-08-30 05:02:40 51°14.322 2°55.146 -999 0.068065 0.338582 0.465999
2005-08-30 05:02:46 51°14.335 2°55.123 -999 0.068065 0.338587 0.465999
2005-08-30 05:02:50 51°14.344 2°55.107 -999 0.068065 0.338587 0.465999
2005-08-30 05:02:56 51°14.357 2°55.083 -999 0.068065 0.338598 0.465999
2005-08-30 05:03:00 51°14.365 2°55.065 -999 0.068065 0.338598 0.465999
2005-08-30 05:03:06 51°14.376 2°55.037 -999 0.068065 0.338608 0.465999
2005-08-30 05:03:10 51°14.382 2°55.017 -999 0.068065 0.338613 0.465999
2005-08-30 05:03:16 51°14.391 2°54.987 -999 0.068065 0.338613 0.465999
2005-08-30 05:03:20 51°14.397 2°54.966 -999 0.068065 0.338613 0.499708
2005-08-30 05:03:26 51°14.405 2°54.934 -999 0.068065 0.338613 0.499708
2005-08-30 05:03:30 51°14.411 2°54.912 -999 0.068065 0.338613 0.465999
2005-08-30 05:03:36 51°14.419 2°54.878 -999 0.068065 0.338613 0.465999
2005-08-30 05:03:41 51°14.425 2°54.853 -999 0.068065 0.338613 0.499708
2005-08-30 05:03:46 51°14.432 2°54.822 -999 0.068065 0.338619 0.465999
2005-08-30 05:03:50 51°14.437 2°54.8 -999 0.068065 0.338624 0.499708
2005-08-30 05:03:56 51°14.445 2°54.766 -999 0.068065 0.338629 0.499708
2005-08-30 05:04:01 51°14.451 2°54.74 -999 0.068065 0.338629 0.499708
2005-08-30 05:04:06 51°14.458 2°54.708 -999 0.068065 0.338634 0.499708
2005-08-30 05:04:10 51°14.464 2°54.685 -999 0.068065 0.338645 0.465999
2005-08-30 05:04:16 51°14.471 2°54.653 -999 0.068065 0.33865 0.499708
2005-08-30 05:04:21 51°14.478 2°54.625 -999 0.068065 0.338655 0.499708
2005-08-30 05:04:26 51°14.484 2°54.596 -999 0.068065 0.338655 0.499708
2005-08-30 05:04:30 51°14.491 2°54.57 -999 0.068065 0.338655 0.499708
2005-08-30 05:04:35 51°14.498 2°54.542 -999 0.068065 0.338661 0.499708
2005-08-30 05:04:41 51°14.507 2°54.508 -999 0.068065 0.338661 0.499708
2005-08-30 05:04:46 51°14.514 2°54.482 -999 0.068065 0.338666 0.499708
2005-08-30 05:04:50 51°14.52 2°54.457 -999 0.068065 0.338666 0.465999
2005-08-30 05:04:55 51°14.528 2°54.429 -999 0.068065 0.338671 0.499708
2005-08-30 05:05:00 51°14.536 2°54.401 -999 0.068065 0.338671 0.499708
2005-08-30 05:05:06 51°14.544 2°54.367 -999 0.068065 0.338676 0.499708
2005-08-30 05:05:11 51°14.551 2°54.341 -999 0.068065 0.338687 0.499708
2005-08-30 05:05:16 51°14.559 2°54.31 -999 0.068065 0.338697 0.499708
2005-08-30 05:05:21 51°14.566 2°54.284 -999 0.068065 0.338703 0.465999
2005-08-30 05:05:26 51°14.573 2°54.255 -999 0.068065 0.338713 0.499708
2005-08-30 05:05:31 51°14.58 2°54.227 -999 0.068065 0.338718 0.499708
2005-08-30 05:05:36 51°14.588 2°54.195 -999 0.068065 0.338718 0.499708
2005-08-30 05:05:41 51°14.594 2°54.169 -999 0.068065 0.338718 0.499708
2005-08-30 05:05:46 51°14.602 2°54.138 -999 0.068065 0.338718 0.465999
2005-08-30 05:05:50 51°14.608 2°54.115 -999 0.068065 0.338724 0.499708
2005-08-30 05:05:56 51°14.618 2°54.081 -999 0.068065 0.338724 0.499708
2005-08-30 05:06:01 51°14.625 2°54.053 -999 0.068065 0.338724 0.499708
2005-08-30 05:06:06 51°14.633 2°54.025 -999 0.068065 0.338724 0.499708
2005-08-30 05:06:11 51°14.64 2°54 -999 0.068065 0.338729 0.499708
2005-08-30 05:06:16 51°14.648 2°53.969 -999 0.068065 0.338729 0.465999
2005-08-30 05:06:21 51°14.654 2°53.943 -999 0.068065 0.338739 0.499708
2005-08-30 05:06:26 51°14.663 2°53.912 -999 0.068065 0.338745 0.465999
2005-08-30 05:06:30 51°14.668 2°53.889 -999 0.068065 0.338745 0.465999
2005-08-30 05:06:36 51°14.676 2°53.854 -999 0.068065 0.338755 0.465999
2005-08-30 05:06:41 51°14.682 2°53.828 -999 0.068065 0.33876 0.499708
2005-08-30 05:06:46 51°14.688 2°53.799 -999 0.068065 0.338766 0.499708
2005-08-30 05:06:50 51°14.693 2°53.773 -999 0.068065 0.338766 0.465999
2005-08-30 05:06:55 51°14.699 2°53.744 -999 0.068065 0.338771 0.499708
2005-08-30 05:07:01 51°14.706 2°53.709 -999 0.068065 0.338766 0.465999
2005-08-30 05:07:06 51°14.711 2°53.683 -999 0.068065 0.338766 0.465999
2005-08-30 05:07:11 51°14.715 2°53.653 -999 0.068065 0.338776 0.499708
2005-08-30 05:07:15 51°14.718 2°53.627 -999 0.068065 0.338782 0.465999
2005-08-30 05:07:21 51°14.72 2°53.593 -999 0.068065 0.338792 0.499708
2005-08-30 05:07:26 51°14.722 2°53.56 -999 0.068065 0.338792 0.465999
2005-08-30 05:07:30 51°14.723 2°53.536 -999 0.068065 0.338792 0.465999
2005-08-30 05:07:36 51°14.723 2°53.499 -999 0.068065 0.338792 0.465999
2005-08-30 05:07:40 51°14.724 2°53.474 -999 0.068065 0.338797 0.465999
2005-08-30 05:07:46 51°14.725 2°53.437 -999 0.068065 0.338797 0.465999
2005-08-30 05:07:51 51°14.725 2°53.406 -999 0.068065 0.338803 0.499708
2005-08-30 05:07:56 51°14.725 2°53.376 -999 0.068065 0.338803 0.465999
2005-08-30 05:08:01 51°14.726 2°53.348 -999 0.068065 0.338803 0.465999
2005-08-30 05:08:06 51°14.727 2°53.314 -999 0.068065 0.338803 0.499708
2005-08-30 05:08:10 51°14.727 2°53.289 -999 0.068065 0.338808 0.465999
2005-08-30 05:08:16 51°14.728 2°53.253 -999 0.068065 0.338818 0.499708
2005-08-30 05:08:21 51°14.729 2°53.222 -999 0.068065 0.338818 0.499708
2005-08-30 05:08:26 51°14.73 2°53.191 -999 0.068065 0.338824 0.465999
2005-08-30 05:08:30 51°14.731 2°53.167 -999 0.068065 0.338824 0.465999
2005-08-30 05:08:36 51°14.732 2°53.13 -999 0.068065 0.338829 0.499708
2005-08-30 05:08:41 51°14.734 2°53.102 -999 0.068065 0.338829 0.499708
2005-08-30 05:08:46 51°14.735 2°53.069 -999 0.068065 0.338839 0.465999
2005-08-30 05:08:50 51°14.736 2°53.045 -999 0.068065 0.338845 0.465999
2005-08-30 05:08:55 51°14.737 2°53.013 -999 0.068065 0.338845 0.499708
2005-08-30 05:09:01 51°14.739 2°52.976 -999 0.068065 0.33885 0.465999
2005-08-30 05:09:06 51°14.74 2°52.945 -999 0.068065 0.33885 0.465999
2005-08-30 05:09:11 51°14.741 2°52.916 -999 0.068065 0.338855 0.499708
2005-08-30 05:09:16 51°14.741 2°52.885 -999 0.068065 0.33886 0.499708
2005-08-30 05:09:21 51°14.742 2°52.851 -999 0.068065 0.338866 0.499708
2005-08-30 05:09:26 51°14.742 2°52.823 -999 0.068065 0.338871 0.465999
2005-08-30 05:09:31 51°14.742 2°52.791 -999 0.068065 0.338871 0.465999
2005-08-30 05:09:36 51°14.743 2°52.757 -999 0.068065 0.338876 0.465999
2005-08-30 05:09:41 51°14.744 2°52.725 -999 0.068065 0.338881 0.465999
2005-08-30 05:09:46 51°14.745 2°52.694 -999 0.067962 0.338355 0.499708
2005-08-30 05:09:50 51°14.746 2°52.669 -999 0.068065 0.338887 0.465999
2005-08-30 05:09:56 51°14.747 2°52.634 -999 0.067962 0.338365 0.499708
2005-08-30 05:10:00 51°14.748 2°52.606 -999 0.067962 0.338365 0.499708
2005-08-30 05:10:06 51°14.749 2°52.571 -999 0.068065 0.338897 0.499708
2005-08-30 05:10:11 51°14.751 2°52.537 -999 0.067962 0.338376 0.465999
2005-08-30 05:10:14 51°14.751 2°52.518 -999 0.068065 0.338908 0.465999
2005-08-30 05:10:21 51°14.753 2°52.478 -999 0.067962 0.338386 0.499708
2005-08-30 05:10:26 51°14.753 2°52.446 -999 0.067962 0.338392 0.465999
2005-08-30 05:10:30 51°14.754 2°52.418 -999 0.067962 0.338392 0.465999
2005-08-30 05:10:36 51°14.754 2°52.383 -999 0.068065 0.338924 0.465999
2005-08-30 05:10:41 51°14.755 2°52.352 -999 0.067962 0.338397 0.465999
2005-08-30 05:10:46 51°14.756 2°52.317 -999 0.067962 0.338407 0.465999
2005-08-30 05:10:50 51°14.757 2°52.292 -999 0.067962 0.338407 0.465999
2005-08-30 05:10:56 51°14.758 2°52.254 -999 0.067962 0.338413 0.499708
2005-08-30 05:11:01 51°14.759 2°52.226 -999 0.067962 0.338418 0.499708
2005-08-30 05:11:06 51°14.76 2°52.194 -999 0.067962 0.338418 0.499708
2005-08-30 05:11:10 51°14.761 2°52.166 -999 0.067962 0.338423 0.465999
2005-08-30 05:11:16 51°14.763 2°52.131 -999 0.067962 0.338428 0.499708
2005-08-30 05:11:21 51°14.764 2°52.097 -999 0.067962 0.338434 0.499708
2005-08-30 05:11:26 51°14.765 2°52.065 -999 0.067962 0.338439 0.465999
2005-08-30 05:11:30 51°14.766 2°52.04 -999 0.067962 0.338439 0.465999
2005-08-30 05:11:36 51°14.766 2°52.002 -999 0.067962 0.338444 0.499708
2005-08-30 05:11:41 51°14.767 2°51.97 -999 0.067962 0.338449 0.465999
2005-08-30 05:11:46 51°14.767 2°51.938 -999 0.067962 0.338455 0.499708
2005-08-30 05:11:50 51°14.768 2°51.912 -999 0.067962 0.338455 0.499708
2005-08-30 05:11:56 51°14.769 2°51.877 -999 0.067962 0.33846 0.499708
2005-08-30 05:12:01 51°14.77 2°51.845 -999 0.067962 0.33846 0.499708
2005-08-30 05:12:06 51°14.771 2°51.81 -999 0.067962 0.33846 0.465999
2005-08-30 05:12:10 51°14.772 2°51.785 -999 0.067962 0.338465 0.499708
2005-08-30 05:12:16 51°14.773 2°51.749 -999 0.067962 0.33847 0.465999
2005-08-30 05:12:20 51°14.774 2°51.721 -999 0.067962 0.33847 0.465999
2005-08-30 05:12:26 51°14.776 2°51.686 -999 0.067962 0.338481 0.499708
2005-08-30 05:12:30 51°14.777 2°51.657 -999 0.067962 0.338486 0.465999
2005-08-30 05:12:36 51°14.778 2°51.618 -999 0.067962 0.338486 0.465999
2005-08-30 05:12:40 51°14.78 2°51.593 -999 0.067962 0.338491 0.499708
2005-08-30 05:12:46 51°14.781 2°51.558 -999 0.067962 0.338497 0.499708
2005-08-30 05:12:51 51°14.782 2°51.523 -999 0.067962 0.338502 0.465999
2005-08-30 05:12:56 51°14.783 2°51.494 -999 0.067962 0.338507 0.465999
2005-08-30 05:13:01 51°14.783 2°51.462 -999 0.067962 0.338507 0.465999
2005-08-30 05:13:06 51°14.784 2°51.426 -999 0.067962 0.338513 0.499708
2005-08-30 05:13:11 51°14.785 2°51.397 -999 0.067962 0.338513 0.465999
2005-08-30 05:13:16 51°14.786 2°51.362 -999 0.067962 0.338513 0.499708
2005-08-30 05:13:21 51°14.787 2°51.333 -999 0.067962 0.338518 0.465999
2005-08-30 05:13:26 51°14.788 2°51.298 -999 0.067962 0.338518 0.465999
2005-08-30 05:13:30 51°14.789 2°51.272 -999 0.067962 0.338518 0.465999
2005-08-30 05:13:36 51°14.79 2°51.237 -999 0.067962 0.338528 0.465999
2005-08-30 05:13:41 51°14.792 2°51.202 -999 0.067962 0.338539 0.499708
2005-08-30 05:13:46 51°14.793 2°51.17 -999 0.067962 0.338539 0.499708
2005-08-30 05:13:50 51°14.794 2°51.144 -999 0.067962 0.338544 0.465999
2005-08-30 05:13:54 51°14.794 2°51.118 -999 0.067962 0.338549 0.499708
2005-08-30 05:14:01 51°14.796 2°51.073 -999 0.067962 0.338555 0.465999
2005-08-30 05:14:06 51°14.797 2°51.041 -999 0.067962 0.338555 0.465999
2005-08-30 05:14:11 51°14.798 2°51.012 -999 0.067962 0.33856 0.465999
2005-08-30 05:14:16 51°14.798 2°50.975 -999 0.067962 0.33856 0.465999
2005-08-30 05:14:20 51°14.799 2°50.949 -999 0.067962 0.33856 0.499708
2005-08-30 05:14:26 51°14.799 2°50.91 -999 0.067962 0.338565 0.499708
2005-08-30 05:14:31 51°14.8 2°50.881 -999 0.067962 0.33857 0.499708
2005-08-30 05:14:36 51°14.802 2°50.846 -999 0.067962 0.33857 0.499708
2005-08-30 05:14:41 51°14.803 2°50.813 -999 0.067962 0.33857 0.499708
2005-08-30 05:14:46 51°14.804 2°50.781 -999 0.067962 0.338576 0.465999
2005-08-30 05:14:51 51°14.805 2°50.749 -999 0.067962 0.338581 0.465999
2005-08-30 05:14:56 51°14.807 2°50.717 -999 0.067962 0.338591 0.499708
2005-08-30 05:15:01 51°14.808 2°50.688 -999 0.067962 0.338591 0.499708
2005-08-30 05:15:06 51°14.809 2°50.652 -999 0.067962 0.338591 0.499708
2005-08-30 05:15:10 51°14.81 2°50.627 -999 0.067962 0.338602 0.465999
2005-08-30 05:15:16 51°14.811 2°50.588 -999 0.067962 0.338607 0.465999
2005-08-30 05:15:21 51°14.811 2°50.558 -999 0.067962 0.338607 0.465999
2005-08-30 05:15:26 51°14.813 2°50.526 -999 0.067962 0.338612 0.465999
2005-08-30 05:15:31 51°14.814 2°50.493 -999 0.067962 0.338612 0.465999
2005-08-30 05:15:36 51°14.815 2°50.458 -999 0.067962 0.338612 0.499708
2005-08-30 05:15:41 51°14.816 2°50.428 -999 0.067962 0.338612 0.499708
2005-08-30 05:15:46 51°14.817 2°50.395 -999 0.067962 0.338618 0.499708
2005-08-30 05:15:50 51°14.818 2°50.366 -999 0.067962 0.338623 0.499708
2005-08-30 05:15:55 51°14.819 2°50.335 -999 0.067962 0.338628 0.499708
2005-08-30 05:16:01 51°14.82 2°50.296 -999 0.067962 0.338639 0.465999
2005-08-30 05:16:06 51°14.822 2°50.264 -999 0.067962 0.338639 0.465999
2005-08-30 05:16:11 51°14.822 2°50.235 -999 0.067962 0.338639 0.465999
2005-08-30 05:16:16 51°14.823 2°50.202 -999 0.067962 0.338644 0.499708
2005-08-30 05:16:22 51°14.823 2°50.163 -999 0.067962 0.338649 0.499708
2005-08-30 05:16:26 51°14.824 2°50.134 -999 0.067962 0.338655 0.465999
2005-08-30 05:16:31 51°14.825 2°50.105 -999 0.067962 0.338655 0.465999
2005-08-30 05:16:35 51°14.825 2°50.076 -999 0.067962 0.338655 0.499708
2005-08-30 05:16:41 51°14.826 2°50.04 -999 0.067962 0.33866 0.465999
2005-08-30 05:16:46 51°14.827 2°50.004 -999 0.067962 0.338665 0.499708
2005-08-30 05:16:51 51°14.828 2°49.975 -999 0.067962 0.33867 0.465999
2005-08-30 05:16:56 51°14.829 2°49.942 -999 0.067962 0.338676 0.465999
2005-08-30 05:17:01 51°14.829 2°49.909 -999 0.067962 0.338676 0.465999
2005-08-30 05:17:06 51°14.83 2°49.876 -999 0.067962 0.338676 0.465999
2005-08-30 05:17:11 51°14.831 2°49.844 -999 0.067962 0.338681 0.499708
2005-08-30 05:17:16 51°14.832 2°49.811 -999 0.067962 0.338686 0.465999
2005-08-30 05:17:21 51°14.833 2°49.779 -999 0.067962 0.338691 0.465999
2005-08-30 05:17:26 51°14.834 2°49.743 -999 0.067962 0.338702 0.465999
2005-08-30 05:17:30 51°14.834 2°49.717 -999 0.067962 0.338702 0.465999
2005-08-30 05:17:36 51°14.835 2°49.681 -999 0.067962 0.338702 0.465999
2005-08-30 05:17:41 51°14.837 2°49.646 -999 0.067962 0.338707 0.465999
2005-08-30 05:17:46 51°14.838 2°49.613 -999 0.067962 0.338713 0.499708
2005-08-30 05:17:51 51°14.839 2°49.584 -999 0.067962 0.338718 0.465999
2005-08-30 05:17:56 51°14.839 2°49.551 -999 0.067962 0.338723 0.499708
2005-08-30 05:18:01 51°14.84 2°49.519 -999 0.067962 0.338728 0.465999
2005-08-30 05:18:06 51°14.841 2°49.484 -999 0.067962 0.338728 0.465999
2005-08-30 05:18:11 51°14.842 2°49.454 -999 0.067962 0.338728 0.499708
2005-08-30 05:18:16 51°14.843 2°49.422 -999 0.067962 0.338734 0.465999
2005-08-30 05:18:21 51°14.845 2°49.386 -999 0.067962 0.338739 0.465999
2005-08-30 05:18:27 51°14.846 2°49.35 -999 0.067962 0.338744 0.465999
2005-08-30 05:18:31 51°14.847 2°49.324 -999 0.067962 0.338744 0.465999
2005-08-30 05:18:36 51°14.847 2°49.29 -999 0.067962 0.338749 0.465999
2005-08-30 05:18:41 51°14.849 2°49.259 -999 0.067962 0.338755 0.465999
2005-08-30 05:18:45 51°14.85 2°49.229 -999 0.067962 0.33876 0.465999
2005-08-30 05:18:51 51°14.851 2°49.194 -999 0.067962 0.338765 0.499708
2005-08-30 05:18:56 51°14.851 2°49.161 -999 0.067962 0.338765 0.499708
2005-08-30 05:19:01 51°14.853 2°49.129 -999 0.067962 0.338765 0.499708
2005-08-30 05:19:06 51°14.854 2°49.097 -999 0.067962 0.338771 0.465999
2005-08-30 05:19:11 51°14.855 2°49.064 -999 0.067962 0.338781 0.465999
2005-08-30 05:19:16 51°14.856 2°49.032 -999 0.067962 0.338781 0.465999
2005-08-30 05:19:21 51°14.857 2°49 -999 0.067962 0.338786 0.465999
2005-08-30 05:19:26 51°14.858 2°48.968 -999 0.067962 0.338786 0.465999
2005-08-30 05:19:31 51°14.859 2°48.935 -999 0.067962 0.338792 0.465999
2005-08-30 05:19:35 51°14.86 2°48.906 -999 0.067962 0.338792 0.465999
2005-08-30 05:19:40 51°14.861 2°48.877 -999 0.067962 0.338802 0.465999
2005-08-30 05:19:46 51°14.862 2°48.835 -999 0.067962 0.338802 0.465999
2005-08-30 05:19:51 51°14.864 2°48.806 -999 0.067962 0.338807 0.499708
2005-08-30 05:19:56 51°14.865 2°48.774 -999 0.067962 0.338813 0.465999
2005-08-30 05:20:01 51°14.866 2°48.742 -999 0.067962 0.338818 0.465999
2005-08-30 05:20:05 51°14.867 2°48.713 -999 0.067962 0.338818 0.465999
2005-08-30 05:20:10 51°14.868 2°48.681 -999 0.067962 0.338823 0.465999
2005-08-30 05:20:16 51°14.869 2°48.645 -999 0.067962 0.338829 0.465999
2005-08-30 05:20:21 51°14.87 2°48.613 -999 0.067962 0.338834 0.465999
2005-08-30 05:20:26 51°14.871 2°48.578 -999 0.067962 0.338834 0.499708
2005-08-30 05:20:31 51°14.872 2°48.549 -999 0.067962 0.338834 0.499708
2005-08-30 05:20:35 51°14.873 2°48.52 -999 0.067962 0.338839 0.499708
2005-08-30 05:20:40 51°14.874 2°48.491 -999 0.067962 0.338839 0.465999
2005-08-30 05:20:46 51°14.876 2°48.452 -999 0.067962 0.33885 0.465999
2005-08-30 05:20:51 51°14.877 2°48.42 -999 0.067962 0.338855 0.499708
2005-08-30 05:20:56 51°14.878 2°48.387 -999 0.067962 0.33886 0.465999
2005-08-30 05:21:01 51°14.879 2°48.355 -999 0.067962 0.33886 0.465999
2005-08-30 05:21:06 51°14.88 2°48.323 -999 0.067962 0.33886 0.465999
2005-08-30 05:21:11 51°14.881 2°48.291 -999 0.067962 0.338865 0.465999
2005-08-30 05:21:16 51°14.882 2°48.259 -999 0.067962 0.338871 0.465999
2005-08-30 05:21:21 51°14.883 2°48.227 -999 0.067962 0.338876 0.465999
2005-08-30 05:21:26 51°14.884 2°48.194 -999 0.067859 0.338348 0.499708
2005-08-30 05:21:31 51°14.885 2°48.162 -999 0.067859 0.338359 0.499708
2005-08-30 05:21:35 51°14.886 2°48.133 -999 0.067859 0.338359 0.499708
2005-08-30 05:21:41 51°14.887 2°48.098 -999 0.067859 0.338364 0.499708
2005-08-30 05:21:46 51°14.888 2°48.062 -999 0.067859 0.338364 0.465999
2005-08-30 05:21:50 51°14.889 2°48.036 -999 0.067962 0.338902 0.465999
2005-08-30 05:21:56 51°14.89 2°48.001 -999 0.067859 0.338375 0.465999
2005-08-30 05:22:01 51°14.891 2°47.968 -999 0.067859 0.338375 0.465999
2005-08-30 05:22:06 51°14.892 2°47.936 -999 0.067859 0.33838 0.465999
2005-08-30 05:22:11 51°14.893 2°47.904 -999 0.067859 0.33838 0.465999
2005-08-30 05:22:16 51°14.894 2°47.872 -999 0.067859 0.338385 0.465999
2005-08-30 05:22:21 51°14.895 2°47.84 -999 0.067859 0.338396 0.465999
2005-08-30 05:22:26 51°14.896 2°47.808 -999 0.067859 0.338396 0.465999
2005-08-30 05:22:31 51°14.897 2°47.775 -999 0.067859 0.338396 0.465999
2005-08-30 05:22:37 51°14.898 2°47.736 -999 0.067859 0.338401 0.465999
2005-08-30 05:22:41 51°14.899 2°47.711 -999 0.067859 0.338406 0.465999
2005-08-30 05:22:46 51°14.9 2°47.676 -999 0.067859 0.338406 0.465999
2005-08-30 05:22:51 51°14.902 2°47.647 -999 0.067859 0.338412 0.465999
2005-08-30 05:22:56 51°14.903 2°47.614 -999 0.067859 0.338417 0.465999
2005-08-30 05:23:01 51°14.904 2°47.582 -999 0.067859 0.338422 0.465999
2005-08-30 05:23:06 51°14.905 2°47.547 -999 0.067859 0.338422 0.465999
2005-08-30 05:23:11 51°14.907 2°47.518 -999 0.067859 0.338427 0.465999
2005-08-30 05:23:15 51°14.907 2°47.492 -999 0.067859 0.338433 0.465999
2005-08-30 05:23:19 51°14.908 2°47.463 -999 0.067859 0.338438 0.465999
2005-08-30 05:23:26 51°14.91 2°47.421 -999 0.067859 0.338443 0.465999
2005-08-30 05:23:31 51°14.911 2°47.39 -999 0.067859 0.338443 0.465999
2005-08-30 05:23:36 51°14.912 2°47.357 -999 0.067859 0.338443 0.465999
2005-08-30 05:23:39 51°14.913 2°47.338 -999 0.067859 0.338449 0.499708
2005-08-30 05:23:46 51°14.915 2°47.29 -999 0.067859 0.338454 0.465999
2005-08-30 05:23:51 51°14.916 2°47.262 -999 0.067859 0.338459 0.465999
2005-08-30 05:23:56 51°14.917 2°47.23 -999 0.067859 0.338459 0.465999
2005-08-30 05:24:01 51°14.918 2°47.198 -999 0.067859 0.338459 0.465999
2005-08-30 05:24:06 51°14.92 2°47.166 -999 0.067859 0.33847 0.465999
2005-08-30 05:24:11 51°14.92 2°47.134 -999 0.067859 0.338475 0.465999
2005-08-30 05:24:16 51°14.921 2°47.102 -999 0.067859 0.33848 0.465999
2005-08-30 05:24:21 51°14.923 2°47.071 -999 0.067859 0.33848 0.465999
2005-08-30 05:24:26 51°14.924 2°47.039 -999 0.067859 0.338485 0.465999
2005-08-30 05:24:31 51°14.925 2°47.007 -999 0.067859 0.338485 0.465999
2005-08-30 05:24:36 51°14.926 2°46.976 -999 0.067859 0.338491 0.465999
2005-08-30 05:24:41 51°14.927 2°46.944 -999 0.067859 0.338496 0.465999
2005-08-30 05:24:46 51°14.929 2°46.913 -999 0.067859 0.338501 0.465999
2005-08-30 05:24:51 51°14.93 2°46.881 -999 0.067859 0.338501 0.465999
2005-08-30 05:24:56 51°14.931 2°46.85 -999 0.067859 0.338512 0.465999
2005-08-30 05:25:01 51°14.932 2°46.818 -999 0.067859 0.338512 0.465999
2005-08-30 05:25:06 51°14.934 2°46.787 -999 0.067859 0.338512 0.465999
2005-08-30 05:25:11 51°14.935 2°46.755 -999 0.067859 0.338517 0.465999
2005-08-30 05:25:16 51°14.936 2°46.724 -999 0.067859 0.338517 0.465999
2005-08-30 05:25:21 51°14.937 2°46.689 -999 0.067859 0.338528 0.465999
2005-08-30 05:25:26 51°14.938 2°46.66 -999 0.067859 0.338533 0.465999
2005-08-30 05:25:31 51°14.939 2°46.629 -999 0.067859 0.338538 0.465999
2005-08-30 05:25:36 51°14.94 2°46.597 -999 0.067859 0.338538 0.465999
2005-08-30 05:25:41 51°14.941 2°46.566 -999 0.067859 0.338538 0.465999
2005-08-30 05:25:46 51°14.942 2°46.531 -999 0.067859 0.338543 0.465999
2005-08-30 05:25:51 51°14.943 2°46.502 -999 0.067859 0.338549 0.465999
2005-08-30 05:25:56 51°14.944 2°46.47 -999 0.067859 0.338549 0.465999
2005-08-30 05:26:01 51°14.946 2°46.439 -999 0.067859 0.338549 0.465999
2005-08-30 05:26:06 51°14.947 2°46.407 -999 0.067859 0.338554 0.465999
2005-08-30 05:26:11 51°14.949 2°46.375 -999 0.067859 0.338565 0.465999
2005-08-30 05:26:16 51°14.95 2°46.343 -999 0.067859 0.33857 0.465999
2005-08-30 05:26:21 51°14.952 2°46.311 -999 0.067859 0.33857 0.465999
2005-08-30 05:26:26 51°14.953 2°46.28 -999 0.067859 0.33858 0.465999
2005-08-30 05:26:31 51°14.955 2°46.247 -999 0.067859 0.33858 0.465999
2005-08-30 05:26:36 51°14.956 2°46.215 -999 0.067859 0.33858 0.465999
2005-08-30 05:26:41 51°14.957 2°46.183 -999 0.067859 0.338586 0.465999
2005-08-30 05:26:46 51°14.958 2°46.151 -999 0.067859 0.338591 0.465999
2005-08-30 05:26:50 51°14.959 2°46.122 -999 0.067859 0.338591 0.465999
2005-08-30 05:26:56 51°14.961 2°46.087 -999 0.067859 0.338596 0.465999
2005-08-30 05:27:01 51°14.963 2°46.055 -999 0.067859 0.338601 0.465999
2005-08-30 05:27:06 51°14.964 2°46.02 -999 0.067859 0.338601 0.465999
2005-08-30 05:27:10 51°14.965 2°45.994 -999 0.067859 0.338607 0.465999
2005-08-30 05:27:16 51°14.967 2°45.958 -999 0.067859 0.338612 0.465999
2005-08-30 05:27:21 51°14.968 2°45.927 -999 0.067859 0.338617 0.465999
2005-08-30 05:27:26 51°14.969 2°45.894 -999 0.067859 0.338623 0.465999
2005-08-30 05:27:31 51°14.97 2°45.862 -999 0.067859 0.338623 0.465999
2005-08-30 05:27:36 51°14.971 2°45.83 -999 0.067859 0.338628 0.465999
2005-08-30 05:27:41 51°14.973 2°45.798 -999 0.067859 0.338628 0.465999
2005-08-30 05:27:46 51°14.974 2°45.763 -999 0.067859 0.338638 0.465999
2005-08-30 05:27:51 51°14.975 2°45.734 -999 0.067859 0.338638 0.465999
2005-08-30 05:27:56 51°14.976 2°45.702 -999 0.067859 0.338649 0.465999
2005-08-30 05:28:00 51°14.977 2°45.672 -999 0.067859 0.338649 0.465999
2005-08-30 05:28:05 51°14.978 2°45.641 -999 0.067859 0.338649 0.465999
2005-08-30 05:28:11 51°14.979 2°45.605 -999 0.067859 0.338654 0.465999
2005-08-30 05:28:16 51°14.98 2°45.573 -999 0.067859 0.338659 0.465999
2005-08-30 05:28:20 51°14.982 2°45.544 -999 0.067859 0.338659 0.465999
2005-08-30 05:28:26 51°14.983 2°45.509 -999 0.067859 0.33867 0.465999
2005-08-30 05:28:31 51°14.984 2°45.476 -999 0.067859 0.33867 0.465999
2005-08-30 05:28:36 51°14.985 2°45.444 -999 0.067859 0.33867 0.465999
2005-08-30 05:28:40 51°14.986 2°45.415 -999 0.067859 0.338675 0.465999
2005-08-30 05:28:46 51°14.987 2°45.38 -999 0.067859 0.338686 0.465999
2005-08-30 05:28:51 51°14.988 2°45.347 -999 0.067859 0.338686 0.465999
2005-08-30 05:28:56 51°14.989 2°45.315 -999 0.067859 0.338686 0.465999
2005-08-30 05:29:01 51°14.99 2°45.283 -999 0.067859 0.338696 0.465999
2005-08-30 05:29:06 51°14.991 2°45.251 -999 0.067859 0.338696 0.465999
2005-08-30 05:29:11 51°14.993 2°45.218 -999 0.067859 0.338696 0.465999
2005-08-30 05:29:15 51°14.994 2°45.189 -999 0.067859 0.338702 0.465999
2005-08-30 05:29:21 51°14.995 2°45.154 -999 0.067859 0.338707 0.465999
2005-08-30 05:29:26 51°14.997 2°45.119 -999 0.067859 0.338712 0.465999
2005-08-30 05:29:31 51°14.998 2°45.09 -999 0.067859 0.338712 0.465999
2005-08-30 05:29:36 51°14.999 2°45.057 -999 0.067859 0.338718 0.465999
2005-08-30 05:29:41 51°15 2°45.025 -999 0.067859 0.338728 0.465999
2005-08-30 05:29:46 51°15.001 2°44.993 -999 0.067859 0.338728 0.465999
2005-08-30 05:29:51 51°15.002 2°44.96 -999 0.067859 0.338728 0.465999
2005-08-30 05:29:56 51°15.003 2°44.928 -999 0.067859 0.338733 0.465999
2005-08-30 05:30:01 51°15.005 2°44.896 -999 0.067859 0.338739 0.465999
2005-08-30 05:30:06 51°15.006 2°44.863 -999 0.067859 0.338739 0.465999
2005-08-30 05:30:11 51°15.007 2°44.831 -999 0.067859 0.338744 0.465999
2005-08-30 05:30:16 51°15.008 2°44.799 -999 0.067859 0.338749 0.465999
2005-08-30 05:30:20 51°15.01 2°44.769 -999 0.067859 0.338755 0.465999
2005-08-30 05:30:26 51°15.011 2°44.734 -999 0.067859 0.338755 0.465999
2005-08-30 05:30:31 51°15.012 2°44.702 -999 0.067859 0.338765 0.465999
2005-08-30 05:30:37 51°15.013 2°44.663 -999 0.067859 0.338765 0.465999
2005-08-30 05:30:41 51°15.014 2°44.637 -999 0.067859 0.338765 0.465999
2005-08-30 05:30:46 51°15.015 2°44.605 -999 0.067859 0.33877 0.465999
2005-08-30 05:30:51 51°15.017 2°44.572 -999 0.067859 0.338776 0.465999
2005-08-30 05:30:56 51°15.018 2°44.54 -999 0.067859 0.338781 0.465999
2005-08-30 05:31:00 51°15.018 2°44.511 -999 0.067859 0.338781 0.465999
2005-08-30 05:31:06 51°15.019 2°44.475 -999 0.067859 0.338786 0.465999
2005-08-30 05:31:11 51°15.02 2°44.443 -999 0.067859 0.338792 0.465999
2005-08-30 05:31:16 51°15.021 2°44.411 -999 0.067859 0.338792 0.465999
2005-08-30 05:31:21 51°15.023 2°44.378 -999 0.067859 0.338797 0.465999
2005-08-30 05:31:26 51°15.024 2°44.343 -999 0.067859 0.338802 0.465999
2005-08-30 05:31:30 51°15.025 2°44.317 -999 0.067859 0.338802 0.465999
2005-08-30 05:31:36 51°15.026 2°44.281 -999 0.067859 0.338807 0.465999
2005-08-30 05:31:41 51°15.027 2°44.249 -999 0.067859 0.338813 0.465999
2005-08-30 05:31:46 51°15.028 2°44.216 -999 0.067859 0.338818 0.465999
2005-08-30 05:31:51 51°15.029 2°44.184 -999 0.067859 0.338818 0.465999
2005-08-30 05:31:56 51°15.031 2°44.151 -999 0.067859 0.338823 0.465999
2005-08-30 05:32:01 51°15.032 2°44.119 -999 0.067859 0.338828 0.465999
2005-08-30 05:32:06 51°15.033 2°44.086 -999 0.067859 0.338828 0.465999
2005-08-30 05:32:10 51°15.034 2°44.057 -999 0.067859 0.338834 0.465999
2005-08-30 05:32:16 51°15.036 2°44.022 -999 0.067859 0.338839 0.465999
2005-08-30 05:32:21 51°15.037 2°43.989 -999 0.067859 0.338839 0.465999
2005-08-30 05:32:27 51°15.038 2°43.95 -999 0.067859 0.338844 0.465999
2005-08-30 05:32:31 51°15.039 2°43.924 -999 0.067757 0.338321 0.465999
2005-08-30 05:32:36 51°15.04 2°43.892 -999 0.067757 0.338321 0.465999
2005-08-30 05:32:40 51°15.041 2°43.863 -999 0.067757 0.338327 0.465999
2005-08-30 05:32:46 51°15.042 2°43.827 -999 0.067859 0.33886 0.465999
2005-08-30 05:32:51 51°15.044 2°43.795 -999 0.067757 0.338332 0.465999
2005-08-30 05:32:55 51°15.045 2°43.766 -999 0.067757 0.338342 0.465999
2005-08-30 05:33:01 51°15.046 2°43.73 -999 0.067757 0.338342 0.465999
2005-08-30 05:33:06 51°15.047 2°43.698 -999 0.067757 0.338342 0.465999
2005-08-30 05:33:11 51°15.048 2°43.665 -999 0.067859 0.338876 0.465999
2005-08-30 05:33:15 51°15.049 2°43.636 -999 0.067757 0.338353 0.465999
2005-08-30 05:33:21 51°15.05 2°43.601 -999 0.067757 0.338358 0.465999
2005-08-30 05:33:26 51°15.051 2°43.569 -999 0.067757 0.338358 0.465999
2005-08-30 05:33:31 51°15.052 2°43.536 -999 0.067757 0.338358 0.465999
2005-08-30 05:33:36 51°15.053 2°43.504 -999 0.067757 0.338364 0.465999
2005-08-30 05:33:41 51°15.054 2°43.469 -999 0.067757 0.338369 0.465999
2005-08-30 05:33:46 51°15.055 2°43.44 -999 0.067757 0.338374 0.465999
2005-08-30 05:33:51 51°15.056 2°43.407 -999 0.067757 0.338379 0.465999
2005-08-30 05:33:56 51°15.057 2°43.372 -999 0.067757 0.338379 0.465999
2005-08-30 05:34:01 51°15.059 2°43.34 -999 0.067757 0.338379 0.465999
2005-08-30 05:34:06 51°15.06 2°43.311 -999 0.067757 0.338379 0.465999
2005-08-30 05:34:11 51°15.061 2°43.279 -999 0.067757 0.33839 0.465999
2005-08-30 05:34:16 51°15.063 2°43.247 -999 0.067757 0.338395 0.465999
2005-08-30 05:34:20 51°15.063 2°43.217 -999 0.067757 0.338395 0.465999
2005-08-30 05:34:26 51°15.065 2°43.182 -999 0.067757 0.3384 0.465999
2005-08-30 05:34:31 51°15.066 2°43.15 -999 0.067757 0.338406 0.465999
2005-08-30 05:34:36 51°15.067 2°43.118 -999 0.067757 0.338406 0.465999
2005-08-30 05:34:41 51°15.068 2°43.086 -999 0.067757 0.338411 0.465999
2005-08-30 05:34:46 51°15.069 2°43.05 -999 0.067757 0.338411 0.465999
2005-08-30 05:34:51 51°15.069 2°43.022 -999 0.067757 0.338416 0.465999
2005-08-30 05:34:55 51°15.07 2°42.993 -999 0.067757 0.338422 0.465999
2005-08-30 05:35:01 51°15.072 2°42.957 -999 0.067757 0.338422 0.465999
2005-08-30 05:35:06 51°15.073 2°42.922 -999 0.067757 0.338427 0.465999
2005-08-30 05:35:11 51°15.074 2°42.893 -999 0.067757 0.338432 0.465999
2005-08-30 05:35:16 51°15.075 2°42.861 -999 0.067757 0.338432 0.465999
2005-08-30 05:35:20 51°15.076 2°42.832 -999 0.067757 0.338437 0.465999
2005-08-30 05:35:26 51°15.077 2°42.797 -999 0.067757 0.338443 0.465999
2005-08-30 05:35:31 51°15.078 2°42.765 -999 0.067757 0.338448 0.465999
2005-08-30 05:35:36 51°15.079 2°42.732 -999 0.067757 0.338448 0.465999
2005-08-30 05:35:41 51°15.08 2°42.7 -999 0.067757 0.338448 0.465999
2005-08-30 05:35:46 51°15.081 2°42.669 -999 0.067757 0.338453 0.465999
2005-08-30 05:35:51 51°15.082 2°42.636 -999 0.067757 0.338459 0.465999
2005-08-30 05:35:57 51°15.084 2°42.598 -999 0.067757 0.338464 0.465999
2005-08-30 05:36:01 51°15.085 2°42.572 -999 0.067757 0.338469 0.465999
2005-08-30 05:36:06 51°15.085 2°42.54 -999 0.067757 0.338469 0.465999
2005-08-30 05:36:11 51°15.087 2°42.509 -999 0.067757 0.338469 0.465999
2005-08-30 05:36:16 51°15.088 2°42.477 -999 0.067757 0.338474 0.465999
2005-08-30 05:36:21 51°15.089 2°42.445 -999 0.067757 0.33848 0.465999
2005-08-30 05:36:26 51°15.09 2°42.413 -999 0.067757 0.33848 0.465999
2005-08-30 05:36:31 51°15.093 2°42.381 -999 0.067757 0.33848 0.465999
2005-08-30 05:36:36 51°15.095 2°42.349 -999 0.067757 0.338485 0.465999
2005-08-30 05:36:41 51°15.098 2°42.317 -999 0.067757 0.33849 0.465999
2005-08-30 05:36:46 51°15.101 2°42.286 -999 0.067757 0.338496 0.465999
2005-08-30 05:36:51 51°15.104 2°42.255 -999 0.067757 0.338501 0.465999
2005-08-30 05:36:56 51°15.107 2°42.223 -999 0.067757 0.338506 0.465999
2005-08-30 05:37:01 51°15.111 2°42.192 -999 0.067757 0.338506 0.465999
2005-08-30 05:37:06 51°15.114 2°42.158 -999 0.067757 0.338511 0.465999
2005-08-30 05:37:11 51°15.117 2°42.129 -999 0.067757 0.338517 0.465999
2005-08-30 05:37:16 51°15.119 2°42.098 -999 0.067757 0.338517 0.465999
2005-08-30 05:37:21 51°15.122 2°42.067 -999 0.067757 0.338522 0.465999
2005-08-30 05:37:26 51°15.125 2°42.036 -999 0.067757 0.338522 0.465999
2005-08-30 05:37:31 51°15.128 2°42.005 -999 0.067757 0.338527 0.465999
2005-08-30 05:37:35 51°15.131 2°41.977 -999 0.067757 0.338527 0.465999
2005-08-30 05:37:40 51°15.134 2°41.946 -999 0.067757 0.338533 0.465999
2005-08-30 05:37:46 51°15.138 2°41.909 -999 0.067757 0.338538 0.465999
2005-08-30 05:37:51 51°15.14 2°41.881 -999 0.067757 0.338543 0.465999
2005-08-30 05:37:56 51°15.143 2°41.851 -999 0.067757 0.338548 0.465999
2005-08-30 05:38:00 51°15.146 2°41.823 -999 0.067757 0.338554 0.465999
2005-08-30 05:38:06 51°15.148 2°41.789 -999 0.067757 0.338554 0.465999
2005-08-30 05:38:11 51°15.151 2°41.759 -999 0.067757 0.338554 0.465999
2005-08-30 05:38:16 51°15.154 2°41.728 -999 0.067757 0.338559 0.465999
2005-08-30 05:38:21 51°15.157 2°41.697 -999 0.067757 0.338564 0.465999
2005-08-30 05:38:26 51°15.16 2°41.664 -999 0.067757 0.33857 0.465999
2005-08-30 05:38:31 51°15.162 2°41.637 -999 0.067757 0.33857 0.465999
2005-08-30 05:38:35 51°15.165 2°41.609 -999 0.067757 0.33857 0.465999
2005-08-30 05:38:41 51°15.168 2°41.576 -999 0.067757 0.338575 0.465999
2005-08-30 05:38:46 51°15.171 2°41.545 -999 0.067757 0.338575 0.465999
2005-08-30 05:38:51 51°15.174 2°41.514 -999 0.067757 0.338575 0.465999
2005-08-30 05:38:55 51°15.177 2°41.49 -999 0.067757 0.33858 0.465999
2005-08-30 05:39:01 51°15.181 2°41.454 -999 0.067757 0.33858 0.465999
2005-08-30 05:39:06 51°15.184 2°41.424 -999 0.067757 0.338585 0.465999
2005-08-30 05:39:11 51°15.187 2°41.394 -999 0.067757 0.338591 0.465999
2005-08-30 05:39:16 51°15.19 2°41.363 -999 0.067757 0.338601 0.465999
2005-08-30 05:39:21 51°15.193 2°41.333 -999 0.067757 0.338601 0.465999
2005-08-30 05:39:26 51°15.197 2°41.299 -999 0.067757 0.338601 0.465999
2005-08-30 05:39:31 51°15.199 2°41.272 -999 0.067757 0.338612 0.465999
2005-08-30 05:39:35 51°15.202 2°41.245 -999 0.067757 0.338612 0.465999
2005-08-30 05:39:41 51°15.206 2°41.212 -999 0.067757 0.338612 0.465999
2005-08-30 05:39:46 51°15.209 2°41.182 -999 0.067757 0.338617 0.465999
2005-08-30 05:39:51 51°15.212 2°41.152 -999 0.067757 0.338617 0.465999
2005-08-30 05:39:56 51°15.215 2°41.121 -999 0.067757 0.338622 0.465999
2005-08-30 05:40:01 51°15.218 2°41.09 -999 0.067757 0.338622 0.465999
2005-08-30 05:40:06 51°15.221 2°41.06 -999 0.067757 0.338622 0.465999
2005-08-30 05:40:11 51°15.224 2°41.029 -999 0.067757 0.338628 0.465999
2005-08-30 05:40:15 51°15.227 2°41.002 -999 0.067757 0.338638 0.465999
2005-08-30 05:40:21 51°15.23 2°40.969 -999 0.067757 0.338638 0.465999
2005-08-30 05:40:26 51°15.233 2°40.935 -999 0.067757 0.338644 0.465999
2005-08-30 05:40:31 51°15.236 2°40.908 -999 0.067757 0.338644 0.465999
2005-08-30 05:40:35 51°15.239 2°40.88 -999 0.067757 0.338649 0.465999
2005-08-30 05:40:41 51°15.243 2°40.848 -999 0.067757 0.338649 0.465999
2005-08-30 05:40:46 51°15.248 2°40.818 -999 0.067757 0.338649 0.465999
2005-08-30 05:40:51 51°15.253 2°40.789 -999 0.067757 0.338654 0.465999
2005-08-30 05:40:56 51°15.26 2°40.76 -999 0.067757 0.338659 0.465999
2005-08-30 05:41:01 51°15.265 2°40.731 -999 0.067757 0.338665 0.465999
2005-08-30 05:41:06 51°15.272 2°40.703 -999 0.067757 0.338665 0.465999
2005-08-30 05:41:11 51°15.278 2°40.677 -999 0.067757 0.338675 0.465999
2005-08-30 05:41:16 51°15.285 2°40.654 -999 0.067757 0.338675 0.465999
2005-08-30 05:41:21 51°15.292 2°40.635 -999 0.067757 0.338675 0.465999
2005-08-30 05:41:26 51°15.3 2°40.619 -999 0.067757 0.338681 0.465999
2005-08-30 05:41:31 51°15.308 2°40.605 -999 0.067757 0.338686 0.465999
2005-08-30 05:41:36 51°15.316 2°40.594 -999 0.067757 0.338686 0.465999
2005-08-30 05:41:41 51°15.323 2°40.586 -999 0.067757 0.338691 0.465999
2005-08-30 05:41:46 51°15.332 2°40.578 -999 0.067757 0.338696 0.465999
2005-08-30 05:41:51 51°15.338 2°40.573 -999 0.067757 0.338702 0.465999
2005-08-30 05:41:56 51°15.345 2°40.569 -999 0.067757 0.338712 0.465999
2005-08-30 05:42:00 51°15.352 2°40.567 -999 0.067757 0.338712 0.465999
2005-08-30 05:42:05 51°15.358 2°40.565 -999 0.067757 0.338718 0.465999
2005-08-30 05:42:11 51°15.365 2°40.565 -999 0.067757 0.338728 0.465999
2005-08-30 05:42:16 51°15.37 2°40.566 -999 0.067757 0.338733 0.465999
2005-08-30 05:42:21 51°15.375 2°40.567 -999 0.067757 0.338744 0.465999
2005-08-30 05:42:26 51°15.38 2°40.569 -999 0.067757 0.338749 0.465999
2005-08-30 05:42:31 51°15.385 2°40.572 -999 0.067757 0.338749 0.465999
2005-08-30 05:42:36 51°15.389 2°40.575 -999 0.067757 0.338749 0.465999
2005-08-30 05:42:41 51°15.392 2°40.579 -999 0.067757 0.338755 0.465999
2005-08-30 05:42:46 51°15.396 2°40.583 -999 0.067757 0.338755 0.465999
2005-08-30 05:42:51 51°15.398 2°40.587 -999 0.067757 0.33876 0.465999
2005-08-30 05:42:56 51°15.401 2°40.592 -999 0.067757 0.33876 0.465999
2005-08-30 05:43:01 51°15.403 2°40.596 -999 0.067757 0.33876 0.465999
2005-08-30 05:43:06 51°15.405 2°40.601 -999 0.067757 0.33876 0.465999
2005-08-30 05:43:11 51°15.407 2°40.605 -999 0.067757 0.338765 0.465999
2005-08-30 05:43:16 51°15.409 2°40.61 -999 0.067757 0.338765 0.465999
2005-08-30 05:43:21 51°15.411 2°40.615 -999 0.067757 0.338771 0.465999
2005-08-30 05:43:26 51°15.412 2°40.619 -999 0.067757 0.338797 0.465999
2005-08-30 05:43:31 51°15.414 2°40.623 -999 0.067757 0.338834 0.465999
2005-08-30 05:43:36 51°15.415 2°40.628 -999 0.067757 0.338834 0.465999
2005-08-30 05:43:41 51°15.417 2°40.632 -999 0.067757 0.338866 0.465999
2005-08-30 05:43:46 51°15.418 2°40.636 -999 0.067757 0.338871 0.465999
2005-08-30 05:43:51 51°15.42 2°40.641 -999 0.067757 0.338861 0.465999
2005-08-30 05:43:56 51°15.421 2°40.645 -999 0.067757 0.338834 0.465999
2005-08-30 05:44:01 51°15.423 2°40.65 -999 0.067757 0.338834 0.465999
2005-08-30 05:44:06 51°15.425 2°40.655 -999 0.067757 0.338792 0.465999
2005-08-30 05:44:11 51°15.426 2°40.659 -999 0.067757 0.338755 0.465999
2005-08-30 05:44:16 51°15.427 2°40.664 -999 0.067757 0.338728 0.465999
2005-08-30 05:44:21 51°15.429 2°40.669 -999 0.067757 0.338728 0.465999
2005-08-30 05:44:26 51°15.43 2°40.674 -999 0.067757 0.338744 0.465999
2005-08-30 05:44:31 51°15.432 2°40.679 -999 0.067757 0.338771 0.465999
2005-08-30 05:44:36 51°15.433 2°40.685 -999 0.067757 0.338771 0.465999
2005-08-30 05:44:41 51°15.434 2°40.69 -999 0.067757 0.338802 0.465999
2005-08-30 05:44:46 51°15.436 2°40.696 -999 0.067757 0.338839 0.465999
2005-08-30 05:44:51 51°15.437 2°40.701 -999 0.067757 0.338861 0.465999
2005-08-30 05:44:56 51°15.438 2°40.706 -999 0.067757 0.338871 0.465999
2005-08-30 05:45:01 51°15.439 2°40.711 -999 0.067757 0.338871 0.465999
2005-08-30 05:45:06 51°15.439 2°40.715 -999 0.067757 0.338871 0.465999
2005-08-30 05:45:10 51°15.44 2°40.719 -999 0.067757 0.338861 0.465999
2005-08-30 05:45:16 51°15.44 2°40.724 -999 0.067757 0.33885 0.465999
2005-08-30 05:45:20 51°15.441 2°40.728 -999 0.067757 0.338845 0.465999
2005-08-30 05:45:26 51°15.441 2°40.732 -999 0.067757 0.338834 0.465999
2005-08-30 05:45:31 51°15.441 2°40.735 -999 0.067757 0.338834 0.465999
2005-08-30 05:45:36 51°15.441 2°40.737 -999 0.067757 0.338834 0.465999
2005-08-30 05:45:40 51°15.441 2°40.737 -999 0.067757 0.338834 0.465999
2005-08-30 05:45:46 51°15.441 2°40.737 -999 0.067757 0.338845 0.465999
2005-08-30 05:45:51 51°15.44 2°40.737 -999 0.067757 0.338855 0.465999
2005-08-30 05:45:56 51°15.44 2°40.736 -999 0.067757 0.338871 0.465999
2005-08-30 05:46:01 51°15.44 2°40.735 -999 0.067757 0.338871 0.465999
2005-08-30 05:46:06 51°15.439 2°40.735 -999 0.067757 0.338876 0.465999
2005-08-30 05:46:11 51°15.439 2°40.734 -999 0.067757 0.338887 0.465999
2005-08-30 05:46:16 51°15.438 2°40.734 -999 0.067757 0.338892 0.465999
2005-08-30 05:46:21 51°15.438 2°40.733 -999 0.067757 0.338892 0.465999
2005-08-30 05:46:26 51°15.437 2°40.733 -999 0.067757 0.338892 0.465999
2005-08-30 05:46:31 51°15.437 2°40.731 -999 0.067757 0.338892 0.465999
2005-08-30 05:46:36 51°15.437 2°40.731 -999 0.067757 0.338892 0.465999
2005-08-30 05:46:40 51°15.436 2°40.73 -999 0.067757 0.338887 0.465999
2005-08-30 05:46:46 51°15.436 2°40.73 -999 0.067757 0.338892 0.465999
2005-08-30 05:46:51 51°15.435 2°40.729 -999 0.067757 0.338898 0.465999
2005-08-30 05:46:56 51°15.435 2°40.728 -999 0.067757 0.338903 0.465999
2005-08-30 05:47:01 51°15.434 2°40.728 -999 0.067757 0.338914 0.465999
2005-08-30 05:47:06 51°15.434 2°40.727 -999 0.067757 0.338914 0.465999
2005-08-30 05:47:11 51°15.433 2°40.726 -999 0.067757 0.338919 0.465999
2005-08-30 05:47:16 51°15.433 2°40.725 -999 0.067654 0.338395 0.465999
2005-08-30 05:47:21 51°15.432 2°40.725 -999 0.067757 0.338929 0.465999
2005-08-30 05:47:26 51°15.432 2°40.724 -999 0.067757 0.338929 0.465999
2005-08-30 05:47:31 51°15.431 2°40.723 -999 0.067757 0.338929 0.465999
2005-08-30 05:47:35 51°15.431 2°40.722 -999 0.067654 0.338405 0.465999
2005-08-30 05:47:41 51°15.43 2°40.722 -999 0.067757 0.338935 0.465999
2005-08-30 05:47:46 51°15.429 2°40.721 -999 0.067654 0.338405 0.465999
2005-08-30 05:47:51 51°15.429 2°40.72 -999 0.067654 0.338411 0.465999
2005-08-30 05:47:56 51°15.428 2°40.72 -999 0.067654 0.338411 0.465999
2005-08-30 05:48:01 51°15.428 2°40.721 -999 0.067654 0.338416 0.465999
2005-08-30 05:48:06 51°15.428 2°40.721 -999 0.067654 0.338416 0.465999
2005-08-30 05:48:11 51°15.427 2°40.722 -999 0.067654 0.338421 0.465999
2005-08-30 05:48:16 51°15.427 2°40.723 -999 0.067654 0.338427 0.465999
2005-08-30 05:48:21 51°15.427 2°40.724 -999 0.067654 0.338427 0.465999
2005-08-30 05:48:26 51°15.426 2°40.725 -999 0.067654 0.338437 0.465999
2005-08-30 05:48:31 51°15.426 2°40.726 -999 0.067654 0.338442 0.465999
2005-08-30 05:48:36 51°15.427 2°40.728 -999 0.067654 0.338442 0.465999
2005-08-30 05:48:40 51°15.427 2°40.729 -999 0.067654 0.338448 0.465999
2005-08-30 05:48:46 51°15.427 2°40.732 -999 0.067654 0.338453 0.465999
2005-08-30 05:48:51 51°15.428 2°40.733 -999 0.067654 0.338453 0.465999
2005-08-30 05:48:56 51°15.429 2°40.736 -999 0.067654 0.338458 0.465999
2005-08-30 05:49:01 51°15.43 2°40.737 -999 0.067654 0.338458 0.465999
2005-08-30 05:49:06 51°15.43 2°40.738 -999 0.067654 0.338464 0.465999
2005-08-30 05:49:11 51°15.432 2°40.74 -999 0.067654 0.338464 0.465999
2005-08-30 05:49:15 51°15.432 2°40.741 -999 0.067654 0.338469 0.465999
2005-08-30 05:49:21 51°15.433 2°40.742 -999 0.067654 0.338474 0.465999
2005-08-30 05:49:26 51°15.435 2°40.743 -999 0.067654 0.33848 0.465999
2005-08-30 05:49:31 51°15.435 2°40.744 -999 0.067654 0.33848 0.465999
2005-08-30 05:49:35 51°15.436 2°40.745 -999 0.067654 0.33848 0.465999
2005-08-30 05:49:41 51°15.437 2°40.746 -999 0.067654 0.338485 0.465999
2005-08-30 05:49:46 51°15.439 2°40.746 -999 0.067654 0.33849 0.465999
2005-08-30 05:49:51 51°15.44 2°40.746 -999 0.067654 0.33849 0.465999
2005-08-30 05:49:56 51°15.441 2°40.747 -999 0.067654 0.338495 0.465999
2005-08-30 05:50:01 51°15.443 2°40.748 -999 0.067654 0.338506 0.465999
2005-08-30 05:50:06 51°15.444 2°40.749 -999 0.067654 0.338506 0.465999
2005-08-30 05:50:11 51°15.445 2°40.749 -999 0.067654 0.338506 0.465999
2005-08-30 05:50:15 51°15.446 2°40.75 -999 0.067654 0.338511 0.465999
2005-08-30 05:50:21 51°15.448 2°40.75 -999 0.067654 0.338517 0.465999
2005-08-30 05:50:26 51°15.449 2°40.751 -999 0.067654 0.338522 0.465999
2005-08-30 05:50:31 51°15.451 2°40.751 -999 0.067654 0.338527 0.432289
2005-08-30 05:50:36 51°15.452 2°40.752 -999 0.067654 0.338527 0.432289
2005-08-30 05:50:41 51°15.453 2°40.753 -999 0.067654 0.338527 0.465999
2005-08-30 05:50:46 51°15.455 2°40.754 -999 0.067654 0.338538 0.465999
2005-08-30 05:50:51 51°15.456 2°40.755 -999 0.067654 0.338543 0.465999
2005-08-30 05:50:56 51°15.457 2°40.756 -999 0.067654 0.338548 0.465999
2005-08-30 05:51:01 51°15.458 2°40.757 -999 0.067654 0.338548 0.465999
2005-08-30 05:51:05 51°15.459 2°40.757 -999 0.067654 0.338559 0.465999
2005-08-30 05:51:11 51°15.46 2°40.758 -999 0.067654 0.338564 0.465999
2005-08-30 05:51:16 51°15.461 2°40.759 -999 0.067654 0.33857 0.465999
2005-08-30 05:51:21 51°15.462 2°40.759 -999 0.067654 0.338575 0.465999
2005-08-30 05:51:26 51°15.463 2°40.76 -999 0.067654 0.338585 0.465999
2005-08-30 05:51:31 51°15.464 2°40.76 -999 0.067654 0.338591 0.465999
2005-08-30 05:51:36 51°15.464 2°40.76 -999 0.067654 0.338591 0.465999
2005-08-30 05:51:40 51°15.465 2°40.76 -999 0.067654 0.338591 0.465999
2005-08-30 05:51:46 51°15.465 2°40.76 -999 0.067654 0.338596 0.465999
2005-08-30 05:51:51 51°15.465 2°40.76 -999 0.067654 0.338596 0.465999
2005-08-30 05:51:56 51°15.465 2°40.76 -999 0.067654 0.338601 0.465999
2005-08-30 05:52:01 51°15.465 2°40.758 -999 0.067654 0.338607 0.432289
2005-08-30 05:52:06 51°15.464 2°40.758 -999 0.067654 0.338607 0.432289
2005-08-30 05:52:11 51°15.464 2°40.756 -999 0.067654 0.338612 0.465999
2005-08-30 05:52:16 51°15.463 2°40.755 -999 0.067654 0.338617 0.465999
2005-08-30 05:52:21 51°15.463 2°40.753 -999 0.067654 0.338623 0.465999
2005-08-30 05:52:26 51°15.462 2°40.751 -999 0.067654 0.338628 0.465999
2005-08-30 05:52:31 51°15.462 2°40.75 -999 0.067654 0.338633 0.465999
2005-08-30 05:52:36 51°15.461 2°40.748 -999 0.067654 0.338633 0.465999
2005-08-30 05:52:41 51°15.461 2°40.747 -999 0.067654 0.338638 0.465999
2005-08-30 05:52:46 51°15.46 2°40.745 -999 0.067654 0.338638 0.465999
2005-08-30 05:52:51 51°15.459 2°40.744 -999 0.067654 0.338638 0.432289
2005-08-30 05:52:56 51°15.459 2°40.742 -999 0.067654 0.338644 0.465999
2005-08-30 05:53:01 51°15.459 2°40.74 -999 0.067654 0.338644 0.465999
2005-08-30 05:53:06 51°15.458 2°40.738 -999 0.067654 0.338649 0.465999
2005-08-30 05:53:11 51°15.458 2°40.737 -999 0.067654 0.338654 0.465999
2005-08-30 05:53:16 51°15.457 2°40.735 -999 0.067654 0.33866 0.465999
2005-08-30 05:53:21 51°15.457 2°40.733 -999 0.067654 0.33866 0.465999
2005-08-30 05:53:26 51°15.456 2°40.732 -999 0.067654 0.33867 0.465999
2005-08-30 05:53:30 51°15.456 2°40.73 -999 0.067654 0.338676 0.465999
2005-08-30 05:53:36 51°15.455 2°40.729 -999 0.067654 0.338676 0.465999
2005-08-30 05:53:41 51°15.455 2°40.727 -999 0.067654 0.338676 0.465999
2005-08-30 05:53:46 51°15.454 2°40.725 -999 0.067654 0.338681 0.465999
2005-08-30 05:53:51 51°15.453 2°40.724 -999 0.067654 0.338686 0.465999
2005-08-30 05:53:55 51°15.453 2°40.722 -999 0.067654 0.338691 0.465999
2005-08-30 05:54:01 51°15.452 2°40.72 -999 0.067654 0.338697 0.465999
2005-08-30 05:54:06 51°15.452 2°40.719 -999 0.067654 0.338697 0.465999
2005-08-30 05:54:11 51°15.451 2°40.717 -999 0.067654 0.338697 0.465999
2005-08-30 05:54:16 51°15.451 2°40.715 -999 0.067654 0.338702 0.465999
2005-08-30 05:54:21 51°15.45 2°40.713 -999 0.067654 0.338707 0.465999
2005-08-30 05:54:26 51°15.45 2°40.712 -999 0.067654 0.338707 0.465999
2005-08-30 05:54:31 51°15.449 2°40.71 -999 0.067654 0.338707 0.465999
2005-08-30 05:54:36 51°15.448 2°40.709 -999 0.067654 0.338713 0.465999
2005-08-30 05:54:40 51°15.448 2°40.707 -999 0.067654 0.338718 0.465999
2005-08-30 05:54:46 51°15.447 2°40.705 -999 0.067654 0.338723 0.465999
2005-08-30 05:54:51 51°15.447 2°40.704 -999 0.067654 0.338729 0.465999
2005-08-30 05:54:55 51°15.447 2°40.702 -999 0.067654 0.338734 0.465999
2005-08-30 05:55:01 51°15.446 2°40.701 -999 0.067654 0.338734 0.465999
2005-08-30 05:55:06 51°15.445 2°40.699 -999 0.067654 0.338739 0.465999
2005-08-30 05:55:11 51°15.445 2°40.697 -999 0.067654 0.338744 0.465999
2005-08-30 05:55:16 51°15.444 2°40.695 -999 0.067654 0.338744 0.465999
2005-08-30 05:55:21 51°15.444 2°40.694 -999 0.067654 0.33875 0.465999
2005-08-30 05:55:26 51°15.444 2°40.692 -999 0.067654 0.338755 0.465999
2005-08-30 05:55:31 51°15.443 2°40.69 -999 0.067654 0.338755 0.465999
2005-08-30 05:55:36 51°15.442 2°40.689 -999 0.067654 0.338755 0.465999
2005-08-30 05:55:41 51°15.442 2°40.687 -999 0.067654 0.33876 0.465999
2005-08-30 05:55:45 51°15.442 2°40.686 -999 0.067654 0.338766 0.432289
2005-08-30 05:55:51 51°15.441 2°40.683 -999 0.067654 0.338771 0.465999
2005-08-30 05:55:56 51°15.441 2°40.682 -999 0.067654 0.338776 0.465999
2005-08-30 05:56:01 51°15.44 2°40.681 -999 0.067654 0.338782 0.465999
2005-08-30 05:56:06 51°15.44 2°40.68 -999 0.067654 0.338782 0.465999
2005-08-30 05:56:11 51°15.439 2°40.678 -999 0.067654 0.338787 0.465999
2005-08-30 05:56:16 51°15.439 2°40.676 -999 0.067654 0.338792 0.432289
2005-08-30 05:56:21 51°15.438 2°40.675 -999 0.067654 0.338792 0.465999
2005-08-30 05:56:26 51°15.438 2°40.672 -999 0.067654 0.338798 0.465999
2005-08-30 05:56:31 51°15.438 2°40.671 -999 0.067654 0.338798 0.465999
2005-08-30 05:56:36 51°15.437 2°40.669 -999 0.067654 0.338803 0.465999
2005-08-30 05:56:41 51°15.437 2°40.668 -999 0.067654 0.338803 0.465999
2005-08-30 05:56:46 51°15.436 2°40.666 -999 0.067654 0.338808 0.465999
2005-08-30 05:56:51 51°15.436 2°40.664 -999 0.067654 0.338808 0.465999
2005-08-30 05:56:56 51°15.436 2°40.663 -999 0.067654 0.338819 0.465999
2005-08-30 05:57:01 51°15.435 2°40.661 -999 0.067654 0.338824 0.432289
2005-08-30 05:57:06 51°15.435 2°40.659 -999 0.067654 0.338824 0.432289
2005-08-30 05:57:11 51°15.434 2°40.658 -999 0.067654 0.338824 0.465999
2005-08-30 05:57:16 51°15.434 2°40.656 -999 0.067654 0.338835 0.465999
2005-08-30 05:57:20 51°15.434 2°40.654 -999 0.067654 0.338835 0.465999
2005-08-30 05:57:26 51°15.433 2°40.653 -999 0.067654 0.33884 0.465999
2005-08-30 05:57:31 51°15.433 2°40.651 -999 0.067654 0.33884 0.465999
2005-08-30 05:57:35 51°15.433 2°40.65 -999 0.067654 0.33884 0.465999
2005-08-30 05:57:41 51°15.432 2°40.647 -999 0.067654 0.338845 0.465999
2005-08-30 05:57:46 51°15.432 2°40.646 -999 0.067654 0.338851 0.465999
2005-08-30 05:57:51 51°15.432 2°40.644 -999 0.067654 0.338851 0.465999
2005-08-30 05:57:56 51°15.431 2°40.642 -999 0.067654 0.338856 0.465999
2005-08-30 05:58:01 51°15.431 2°40.641 -999 0.067654 0.338856 0.465999
2005-08-30 05:58:06 51°15.43 2°40.639 -999 0.067654 0.338861 0.432289
2005-08-30 05:58:11 51°15.43 2°40.638 -999 0.067654 0.338866 0.465999
2005-08-30 05:58:16 51°15.43 2°40.636 -999 0.067654 0.338866 0.465999
2005-08-30 05:58:21 51°15.429 2°40.634 -999 0.067654 0.338872 0.465999
2005-08-30 05:58:26 51°15.429 2°40.633 -999 0.067654 0.338872 0.465999
2005-08-30 05:58:31 51°15.429 2°40.631 -999 0.067654 0.338877 0.465999
2005-08-30 05:58:36 51°15.428 2°40.63 -999 0.067654 0.338877 0.465999
2005-08-30 05:58:41 51°15.428 2°40.628 -999 0.067654 0.338882 0.465999
2005-08-30 05:58:46 51°15.428 2°40.626 -999 0.067654 0.338882 0.432289
2005-08-30 05:58:51 51°15.428 2°40.625 -999 0.067654 0.338893 0.465999
2005-08-30 05:58:56 51°15.427 2°40.623 -999 0.067654 0.338893 0.465999
2005-08-30 05:59:00 51°15.427 2°40.622 -999 0.067654 0.338898 0.465999
2005-08-30 05:59:06 51°15.427 2°40.62 -999 0.067654 0.338898 0.465999
2005-08-30 05:59:11 51°15.426 2°40.619 -999 0.067654 0.338898 0.465999
2005-08-30 05:59:16 51°15.426 2°40.617 -999 0.067654 0.338898 0.465999
2005-08-30 05:59:20 51°15.426 2°40.616 -999 0.067654 0.338909 0.432289
2005-08-30 05:59:26 51°15.426 2°40.614 -999 0.067654 0.338909 0.432289
2005-08-30 05:59:31 51°15.425 2°40.612 -999 0.067654 0.338909 0.465999
2005-08-30 05:59:36 51°15.423 2°40.61 -999 0.067654 0.338909 0.465999
2005-08-30 05:59:41 51°15.421 2°40.607 -999 0.067654 0.338925 0.465999
2005-08-30 05:59:46 51°15.418 2°40.604 -999 0.067654 0.338925 0.465999
2005-08-30 05:59:51 51°15.415 2°40.6 -999 0.067654 0.33893 0.465999
2005-08-30 05:59:57 51°15.411 2°40.595 -999 0.067654 0.33893 0.465999
2005-08-30 06:00:02 51°15.407 2°40.592 -999 0.067654 0.33893 0.465999
2005-08-30 06:00:07 51°15.403 2°40.588 -999 0.067654 0.338936 0.465999
2005-08-30 06:00:12 51°15.4 2°40.584 -999 0.067654 0.338936 0.465999
2005-08-30 06:00:16 51°15.398 2°40.581 -999 0.067654 0.33893 0.465999
2005-08-30 06:00:22 51°15.395 2°40.577 -999 0.067654 0.338936 0.465999
2005-08-30 06:00:26 51°15.393 2°40.575 -999 0.067654 0.338936 0.465999
2005-08-30 06:00:31 51°15.391 2°40.573 -999 0.067654 0.338936 0.465999
2005-08-30 06:00:35 51°15.39 2°40.571 -999 0.067654 0.338936 0.465999
2005-08-30 06:00:41 51°15.39 2°40.569 -999 0.067654 0.338936 0.465999
2005-08-30 06:00:46 51°15.389 2°40.568 -999 0.067654 0.338936 0.465999
2005-08-30 06:00:51 51°15.389 2°40.567 -999 0.067654 0.338941 0.465999
2005-08-30 06:00:56 51°15.389 2°40.566 -999 0.067654 0.338946 0.465999
2005-08-30 06:01:01 51°15.388 2°40.565 -999 0.067654 0.338951 0.465999
2005-08-30 06:01:06 51°15.388 2°40.564 -999 0.067654 0.338951 0.465999
2005-08-30 06:01:11 51°15.388 2°40.563 -999 0.067654 0.338957 0.432289
2005-08-30 06:01:16 51°15.387 2°40.561 -999 0.067654 0.338962 0.465999
2005-08-30 06:01:21 51°15.386 2°40.56 -999 0.067654 0.338967 0.465999
2005-08-30 06:01:26 51°15.386 2°40.558 -999 0.067654 0.338967 0.465999
2005-08-30 06:01:31 51°15.385 2°40.556 -999 0.067654 0.338967 0.465999
2005-08-30 06:01:36 51°15.384 2°40.552 -999 0.067654 0.338967 0.465999
2005-08-30 06:01:41 51°15.383 2°40.549 -999 0.067654 0.338973 0.465999
2005-08-30 06:01:46 51°15.381 2°40.545 -999 0.067654 0.338973 0.465999
2005-08-30 06:01:51 51°15.38 2°40.542 -999 0.067654 0.338973 0.465999
2005-08-30 06:01:56 51°15.379 2°40.539 -999 0.067654 0.338973 0.432289
2005-08-30 06:01:59 51°15.378 2°40.537 -999 0.067654 0.338973 0.432289
2005-08-30 06:02:06 51°15.376 2°40.532 -999 0.067654 0.338973 0.465999
2005-08-30 06:02:11 51°15.375 2°40.529 -999 0.067654 0.338983 0.465999
2005-08-30 06:02:16 51°15.374 2°40.526 -999 0.067654 0.338983 0.465999
2005-08-30 06:02:21 51°15.373 2°40.523 -999 0.067654 0.338989 0.465999
2005-08-30 06:02:26 51°15.372 2°40.52 -999 0.067654 0.338994 0.432289
2005-08-30 06:02:31 51°15.371 2°40.517 -999 0.067654 0.338994 0.465999
2005-08-30 06:02:36 51°15.369 2°40.514 -999 0.067654 0.338994 0.465999
2005-08-30 06:02:41 51°15.368 2°40.511 -999 0.067654 0.338999 0.465999
2005-08-30 06:02:46 51°15.367 2°40.508 -999 0.067654 0.339005 0.465999
2005-08-30 06:02:51 51°15.366 2°40.505 -999 0.067654 0.339005 0.465999
2005-08-30 06:02:56 51°15.365 2°40.502 -999 0.067654 0.339005 0.432289
2005-08-30 06:03:01 51°15.363 2°40.499 -999 0.067654 0.33901 0.432289
2005-08-30 06:03:06 51°15.362 2°40.496 -999 0.067654 0.33901 0.432289
2005-08-30 06:03:10 51°15.361 2°40.493 -999 0.067654 0.33901 0.432289
2005-08-30 06:03:16 51°15.36 2°40.491 -999 0.067654 0.33901 0.465999
2005-08-30 06:03:21 51°15.359 2°40.488 -999 0.067654 0.339015 0.432289
2005-08-30 06:03:26 51°15.357 2°40.485 -999 0.067654 0.339021 0.465999
2005-08-30 06:03:31 51°15.356 2°40.482 -999 0.067654 0.339021 0.465999
2005-08-30 06:03:36 51°15.355 2°40.479 -999 0.067654 0.339015 0.465999
2005-08-30 06:03:41 51°15.353 2°40.476 -999 0.067654 0.339026 0.465999
2005-08-30 06:03:46 51°15.351 2°40.473 -999 0.067654 0.339026 0.465999
2005-08-30 06:03:51 51°15.35 2°40.469 -999 0.067654 0.339026 0.432289
2005-08-30 06:03:56 51°15.348 2°40.466 -999 0.067654 0.339031 0.465999
2005-08-30 06:04:01 51°15.347 2°40.463 -999 0.067654 0.339031 0.432289
2005-08-30 06:04:06 51°15.345 2°40.461 -999 0.067654 0.339031 0.432289
2005-08-30 06:04:11 51°15.344 2°40.458 -999 0.067654 0.339036 0.432289
2005-08-30 06:04:16 51°15.343 2°40.455 -999 0.067654 0.339036 0.465999
2005-08-30 06:04:21 51°15.342 2°40.453 -999 0.067654 0.339036 0.465999
2005-08-30 06:04:26 51°15.341 2°40.45 -999 0.067654 0.339047 0.465999
2005-08-30 06:04:31 51°15.34 2°40.448 -999 0.067654 0.339047 0.465999
2005-08-30 06:04:36 51°15.339 2°40.446 -999 0.067654 0.339047 0.465999
2005-08-30 06:04:41 51°15.339 2°40.445 -999 0.067654 0.339047 0.432289
2005-08-30 06:04:46 51°15.338 2°40.443 -999 0.067654 0.339052 0.432289
2005-08-30 06:04:51 51°15.338 2°40.443 -999 0.067654 0.339058 0.432289
2005-08-30 06:04:56 51°15.339 2°40.443 -999 0.067654 0.339058 0.432289
2005-08-30 06:05:01 51°15.339 2°40.444 -999 0.067654 0.339063 0.432289
2005-08-30 06:05:06 51°15.339 2°40.445 -999 0.067654 0.339063 0.432289
2005-08-30 06:05:11 51°15.34 2°40.446 -999 0.067654 0.339063 0.465999
2005-08-30 06:05:16 51°15.34 2°40.448 -999 0.067654 0.339068 0.432289
2005-08-30 06:05:20 51°15.34 2°40.45 -999 0.067654 0.339079 0.465999
2005-08-30 06:05:26 51°15.341 2°40.452 -999 0.067757 0.339615 0.432289
2005-08-30 06:05:31 51°15.341 2°40.454 -999 0.067757 0.339615 0.432289
2005-08-30 06:05:36 51°15.342 2°40.455 -999 0.067654 0.33909 0.432289
2005-08-30 06:05:40 51°15.342 2°40.457 -999 0.067654 0.339095 0.432289
2005-08-30 06:05:46 51°15.342 2°40.458 -999 0.067654 0.3391 0.432289
2005-08-30 06:05:51 51°15.342 2°40.46 -999 0.067654 0.3391 0.465999
2005-08-30 06:05:56 51°15.343 2°40.461 -999 0.067654 0.339106 0.465999
2005-08-30 06:06:01 51°15.343 2°40.462 -999 0.067654 0.339106 0.432289
2005-08-30 06:06:06 51°15.343 2°40.464 -999 0.067654 0.339106 0.432289
2005-08-30 06:06:11 51°15.343 2°40.464 -999 0.067654 0.339106 0.432289
2005-08-30 06:06:16 51°15.344 2°40.465 -999 0.067654 0.339106 0.465999
2005-08-30 06:06:21 51°15.343 2°40.467 -999 0.067654 0.339111 0.465999
2005-08-30 06:06:26 51°15.344 2°40.468 -999 0.067654 0.339116 0.465999
2005-08-30 06:06:31 51°15.344 2°40.468 -999 0.067654 0.339122 0.432289
2005-08-30 06:06:36 51°15.344 2°40.469 -999 0.067654 0.339122 0.432289
2005-08-30 06:06:41 51°15.344 2°40.47 -999 0.067654 0.339122 0.465999
2005-08-30 06:06:47 51°15.344 2°40.471 -999 0.067654 0.339132 0.432289
2005-08-30 06:06:51 51°15.344 2°40.471 -999 0.067654 0.339127 0.465999
2005-08-30 06:06:56 51°15.345 2°40.471 -999 0.067654 0.339132 0.465999
2005-08-30 06:07:01 51°15.345 2°40.472 -999 0.067654 0.339132 0.465999
2005-08-30 06:07:06 51°15.345 2°40.473 -999 0.067654 0.339132 0.465999
2005-08-30 06:07:11 51°15.345 2°40.473 -999 0.067654 0.339132 0.465999
2005-08-30 06:07:16 51°15.344 2°40.473 -999 0.067654 0.339132 0.465999
2005-08-30 06:07:21 51°15.344 2°40.474 -999 0.067654 0.339137 0.465999
2005-08-30 06:07:26 51°15.344 2°40.474 -999 0.067654 0.339137 0.465999
2005-08-30 06:07:31 51°15.344 2°40.475 -999 0.067654 0.339143 0.465999
2005-08-30 06:07:36 51°15.344 2°40.476 -999 0.067654 0.339143 0.465999
2005-08-30 06:07:41 51°15.344 2°40.476 -999 0.067654 0.339148 0.465999
2005-08-30 06:07:46 51°15.344 2°40.476 -999 0.067654 0.339148 0.465999
2005-08-30 06:07:51 51°15.344 2°40.477 -999 0.067654 0.339153 0.465999
2005-08-30 06:07:56 51°15.344 2°40.478 -999 0.067654 0.339159 0.465999
2005-08-30 06:08:01 51°15.345 2°40.48 -999 0.067654 0.339159 0.465999
2005-08-30 06:08:06 51°15.345 2°40.483 -999 0.067654 0.339159 0.465999
2005-08-30 06:08:10 51°15.345 2°40.486 -999 0.067654 0.339164 0.432289
2005-08-30 06:08:16 51°15.346 2°40.491 -999 0.067654 0.339164 0.465999
2005-08-30 06:08:21 51°15.347 2°40.495 -999 0.067654 0.339164 0.465999
2005-08-30 06:08:26 51°15.348 2°40.499 -999 0.067654 0.339169 0.465999
2005-08-30 06:08:31 51°15.349 2°40.504 -999 0.067654 0.339175 0.465999
2005-08-30 06:08:36 51°15.35 2°40.509 -999 0.067654 0.339175 0.465999
2005-08-30 06:08:39 51°15.351 2°40.513 -999 0.067654 0.33918 0.432289
2005-08-30 06:08:46 51°15.353 2°40.521 -999 0.067654 0.33918 0.465999
2005-08-30 06:08:51 51°15.354 2°40.527 -999 0.067654 0.339185 0.465999
2005-08-30 06:08:56 51°15.356 2°40.534 -999 0.067654 0.339191 0.465999
2005-08-30 06:09:01 51°15.357 2°40.541 -999 0.067654 0.339191 0.465999
2005-08-30 06:09:06 51°15.359 2°40.547 -999 0.067654 0.339196 0.465999
2005-08-30 06:09:11 51°15.361 2°40.554 -999 0.067654 0.339201 0.465999
2005-08-30 06:09:16 51°15.363 2°40.562 -999 0.067654 0.339201 0.432289
2005-08-30 06:09:20 51°15.365 2°40.568 -999 0.067654 0.339212 0.465999
2005-08-30 06:09:26 51°15.368 2°40.577 -999 0.067654 0.339212 0.465999
2005-08-30 06:09:31 51°15.37 2°40.584 -999 0.067654 0.339217 0.432289
2005-08-30 06:09:35 51°15.371 2°40.591 -999 0.067654 0.339217 0.432289
2005-08-30 06:09:41 51°15.373 2°40.6 -999 0.067654 0.339217 0.432289
2005-08-30 06:09:46 51°15.375 2°40.607 -999 0.067654 0.339228 0.465999
2005-08-30 06:09:51 51°15.377 2°40.614 -999 0.067654 0.339228 0.465999
2005-08-30 06:09:56 51°15.378 2°40.62 -999 0.067654 0.339233 0.465999
2005-08-30 06:10:01 51°15.38 2°40.626 -999 0.067654 0.339233 0.465999
2005-08-30 06:10:06 51°15.381 2°40.632 -999 0.067654 0.339233 0.465999
2005-08-30 06:10:11 51°15.382 2°40.638 -999 0.067654 0.339239 0.465999
2005-08-30 06:10:16 51°15.383 2°40.643 -999 0.067654 0.339244 0.465999
2005-08-30 06:10:21 51°15.384 2°40.648 -999 0.067654 0.339249 0.465999
2005-08-30 06:10:26 51°15.385 2°40.653 -999 0.067654 0.339249 0.465999
2005-08-30 06:10:31 51°15.386 2°40.658 -999 0.067654 0.339255 0.432289
2005-08-30 06:10:36 51°15.386 2°40.663 -999 0.067654 0.339255 0.432289
2005-08-30 06:10:41 51°15.387 2°40.668 -999 0.067654 0.339255 0.465999
2005-08-30 06:10:46 51°15.387 2°40.672 -999 0.067654 0.339265 0.432289
2005-08-30 06:10:51 51°15.387 2°40.677 -999 0.067654 0.33927 0.432289
2005-08-30 06:10:56 51°15.387 2°40.681 -999 0.067654 0.33927 0.465999
2005-08-30 06:11:01 51°15.387 2°40.685 -999 0.067654 0.33927 0.465999
2005-08-30 06:11:06 51°15.388 2°40.688 -999 0.067654 0.339276 0.432289
2005-08-30 06:11:11 51°15.388 2°40.692 -999 0.067654 0.339281 0.465999
2005-08-30 06:11:16 51°15.388 2°40.696 -999 0.067654 0.339286 0.432289
2005-08-30 06:11:20 51°15.387 2°40.699 -999 0.067654 0.339286 0.432289
2005-08-30 06:11:26 51°15.387 2°40.703 -999 0.067654 0.339292 0.465999
2005-08-30 06:11:31 51°15.387 2°40.707 -999 0.067654 0.339297 0.432289
2005-08-30 06:11:36 51°15.387 2°40.711 -999 0.067654 0.339297 0.432289
2005-08-30 06:11:41 51°15.387 2°40.715 -999 0.067654 0.339302 0.465999
2005-08-30 06:11:46 51°15.388 2°40.719 -999 0.067654 0.339308 0.432289
2005-08-30 06:11:51 51°15.388 2°40.724 -999 0.067654 0.339313 0.432289
2005-08-30 06:11:56 51°15.389 2°40.727 -999 0.067654 0.339318 0.432289
2005-08-30 06:12:01 51°15.391 2°40.731 -999 0.067654 0.339324 0.432289
2005-08-30 06:12:06 51°15.393 2°40.735 -999 0.067654 0.339324 0.432289
2005-08-30 06:12:11 51°15.394 2°40.738 -999 0.067654 0.339334 0.432289
2005-08-30 06:12:16 51°15.396 2°40.741 -999 0.067654 0.339345 0.465999
2005-08-30 06:12:21 51°15.398 2°40.743 -999 0.067654 0.33935 0.432289
2005-08-30 06:12:26 51°15.401 2°40.746 -999 0.067654 0.339356 0.432289
2005-08-30 06:12:31 51°15.403 2°40.748 -999 0.067654 0.339356 0.432289
2005-08-30 06:12:36 51°15.405 2°40.749 -999 0.067654 0.339361 0.432289
2005-08-30 06:12:41 51°15.407 2°40.751 -999 0.067654 0.339361 0.432289
2005-08-30 06:12:46 51°15.409 2°40.753 -999 0.067654 0.339361 0.432289
2005-08-30 06:12:51 51°15.411 2°40.755 -999 0.067654 0.339361 0.432289
2005-08-30 06:12:56 51°15.414 2°40.756 -999 0.067654 0.339356 0.432289
2005-08-30 06:13:01 51°15.416 2°40.758 -999 0.067654 0.339356 0.465999
2005-08-30 06:13:06 51°15.418 2°40.759 -999 0.067654 0.339356 0.465999
2005-08-30 06:13:11 51°15.42 2°40.761 -999 0.067654 0.339361 0.432289
2005-08-30 06:13:16 51°15.422 2°40.761 -999 0.067654 0.339366 0.432289
2005-08-30 06:13:21 51°15.424 2°40.762 -999 0.067654 0.339366 0.465999
2005-08-30 06:13:26 51°15.426 2°40.763 -999 0.067654 0.339372 0.432289
2005-08-30 06:13:31 51°15.428 2°40.763 -999 0.067654 0.339377 0.432289
2005-08-30 06:13:36 51°15.43 2°40.763 -999 0.067654 0.339377 0.432289
2005-08-30 06:13:41 51°15.432 2°40.764 -999 0.067654 0.339388 0.465999
2005-08-30 06:13:47 51°15.435 2°40.764 -999 0.067654 0.339393 0.465999
2005-08-30 06:13:51 51°15.436 2°40.764 -999 0.067654 0.339393 0.432289
2005-08-30 06:13:55 51°15.438 2°40.764 -999 0.067654 0.339398 0.465999
2005-08-30 06:14:01 51°15.441 2°40.764 -999 0.067654 0.339398 0.432289
2005-08-30 06:14:06 51°15.442 2°40.764 -999 0.067654 0.339398 0.432289
2005-08-30 06:14:11 51°15.444 2°40.764 -999 0.067654 0.339404 0.432289
2005-08-30 06:14:16 51°15.446 2°40.765 -999 0.067654 0.339409 0.465999
2005-08-30 06:14:21 51°15.448 2°40.765 -999 0.067654 0.339409 0.432289
2005-08-30 06:14:26 51°15.449 2°40.766 -999 0.067654 0.339414 0.465999
2005-08-30 06:14:31 51°15.451 2°40.766 -999 0.067654 0.339414 0.432289
2005-08-30 06:14:34 51°15.452 2°40.766 -999 0.067654 0.339414 0.432289
2005-08-30 06:14:41 51°15.454 2°40.767 -999 0.067654 0.33942 0.432289
2005-08-30 06:14:46 51°15.455 2°40.767 -999 0.067654 0.33942 0.432289
2005-08-30 06:14:51 51°15.456 2°40.767 -999 0.067654 0.33943 0.432289
2005-08-30 06:14:56 51°15.457 2°40.767 -999 0.067654 0.339425 0.465999
2005-08-30 06:15:01 51°15.457 2°40.766 -999 0.067654 0.339436 0.432289
2005-08-30 06:15:06 51°15.458 2°40.766 -999 0.067654 0.339436 0.432289
2005-08-30 06:15:11 51°15.458 2°40.765 -999 0.067654 0.339441 0.432289
2005-08-30 06:15:16 51°15.458 2°40.765 -999 0.067654 0.339441 0.432289
2005-08-30 06:15:21 51°15.458 2°40.764 -999 0.067654 0.339452 0.432289